| time (UTC) | temp C | wind direction | speed KPH | gust KPH | rain 1hr cm | rain 24hr cm | rain mn cm | humidity % | barometer mb |
| 20260905145331 | 20 | 292 | 19.3 | 0.0 | 0.00 | 0.00 | 0.00 | 64 | 1064.6 |
| 20260905145204 | 20 | 337 | 9.7 | 0.0 | 0.00 | 0.00 | 0.00 | 64 | 1064.5 |
| 20260905145100 | 20 | 337 | 22.5 | 0.0 | 0.00 | 0.00 | 0.00 | 65 | 1064.6 |
| 20260905144952 | 20 | 270 | 12.9 | 0.0 | 0.00 | 0.00 | 0.00 | 64 | 1064.5 |
| 20260905144839 | 20 | 292 | 22.5 | 0.0 | 0.00 | 0.00 | 0.00 | 64 | 1064.5 |
| 20260905144734 | 20 | 337 | 0.0 | 0.0 | 0.00 | 0.00 | 0.00 | 64 | 1064.6 |
| 20260905144612 | 20 | 292 | 0.0 | 0.0 | 0.00 | 0.00 | 0.00 | 64 | 1064.6 |
| 20260905144459 | 20 | 315 | 9.7 | 0.0 | 0.00 | 0.00 | 0.00 | 63 | 1064.5 |
| 20260905144346 | 20 | 270 | 16.1 | 0.0 | 0.00 | 0.00 | 0.00 | 63 | 1064.4 |
| 20260905144241 | 20 | 315 | 14.5 | 0.0 | 0.00 | 0.00 | 0.00 | 64 | 1064.4 |
| 20260905144130 | 20 | 315 | 17.7 | 0.0 | 0.00 | 0.00 | 0.00 | 63 | 1064.4 |
| 20260905144015 | 20 | 315 | 8.0 | 0.0 | 0.00 | 0.00 | 0.00 | 63 | 1064.4 |
| 20260905143854 | 20 | 337 | 14.5 | 0.0 | 0.00 | 0.00 | 0.00 | 63 | 1064.4 |
| 20260905143748 | 20 | 292 | 16.1 | 0.0 | 0.00 | 0.00 | 0.00 | 63 | 1064.3 |
| 20260905143629 | 20 | 315 | 11.3 | 0.0 | 0.00 | 0.00 | 0.00 | 64 | 1064.3 |
| 20260905143514 | 20 | 0 | 8.0 | 0.0 | 0.00 | 0.00 | 0.00 | 63 | 1064.3 |
| 20260905143402 | 20 | 270 | 29.0 | 0.0 | 0.00 | 0.00 | 0.00 | 63 | 1064.2 |
| 20260905143257 | 20 | 247 | 6.4 | 0.0 | 0.00 | 0.00 | 0.00 | 63 | 1064.4 |
| 20260905143152 | 20 | 315 | 30.6 | 0.0 | 0.00 | 0.00 | 0.00 | 64 | 1064.3 |
| 20260905143046 | 20 | 337 | 9.7 | 0.0 | 0.00 | 0.00 | 0.00 | 64 | 1064.2 |
| 20260905142941 | 20 | 315 | 9.7 | 0.0 | 0.00 | 0.00 | 0.00 | 64 | 1064.3 |
| 20260905142820 | 20 | 315 | 8.0 | 0.0 | 0.00 | 0.00 | 0.00 | 64 | 1064.2 |
| 20260905142659 | 20 | 315 | 17.7 | 0.0 | 0.00 | 0.00 | 0.00 | 65 | 1064.2 |
| 20260905142554 | 20 | 337 | 0.0 | 0.0 | 0.00 | 0.00 | 0.00 | 65 | 1064.2 |
| 20260905142448 | 20 | 315 | 19.3 | 0.0 | 0.00 | 0.00 | 0.00 | 65 | 1064.2 |
| 20260905142335 | 20 | 337 | 8.0 | 0.0 | 0.00 | 0.00 | 0.00 | 65 | 1064.2 |
| 20260905142221 | 20 | 315 | 9.7 | 0.0 | 0.00 | 0.00 | 0.00 | 65 | 1064.2 |
| 20260905142109 | 20 | 315 | 16.1 | 0.0 | 0.00 | 0.00 | 0.00 | 64 | 1064.1 |
| 20260905141956 | 20 | 22 | 8.0 | 0.0 | 0.00 | 0.00 | 0.00 | 64 | 1064.2 |
| 20260905141850 | 20 | 270 | 12.9 | 0.0 | 0.00 | 0.00 | 0.00 | 63 | 1064.2 |
| 20260905141721 | 20 | 315 | 17.7 | 0.0 | 0.00 | 0.00 | 0.00 | 64 | 1064.2 |
| 20260905141608 | 20 | 315 | 8.0 | 0.0 | 0.00 | 0.00 | 0.00 | 63 | 1064.2 |
| 20260905141504 | 20 | 337 | 8.0 | 0.0 | 0.00 | 0.00 | 0.00 | 63 | 1064.2 |
| 20260905141349 | 20 | 292 | 14.5 | 0.0 | 0.00 | 0.00 | 0.00 | 63 | 1064.2 |
| 20260905141236 | 20 | 270 | 9.7 | 0.0 | 0.00 | 0.00 | 0.00 | 64 | 1064.1 |
| 20260905141123 | 20 | 292 | 0.0 | 0.0 | 0.00 | 0.00 | 0.00 | 64 | 1064.1 |
| 20260905141004 | 19 | 225 | 11.3 | 0.0 | 0.00 | 0.00 | 0.00 | 63 | 1064.1 |
| 20260905140858 | 19 | 0 | 40.2 | 0.0 | 0.00 | 0.00 | 0.00 | 63 | 1064.1 |
| 20260905140752 | 20 | 45 | 14.5 | 0.0 | 0.00 | 0.00 | 0.00 | 63 | 1064.1 |
| 20260905140632 | 20 | 247 | 17.7 | 0.0 | 0.00 | 0.00 | 0.00 | 63 | 1064.1 |
| 20260905140526 | 20 | 292 | 19.3 | 0.0 | 0.00 | 0.00 | 0.00 | 63 | 1064.2 |
| 20260905140413 | 20 | 292 | 19.3 | 0.0 | 0.00 | 0.00 | 0.00 | 64 | 1064.1 |
| 20260905140308 | 20 | 292 | 19.3 | 0.0 | 0.00 | 0.00 | 0.00 | 64 | 1064.0 |
| 20260905140146 | 20 | 337 | 12.9 | 0.0 | 0.00 | 0.00 | 0.00 | 64 | 1064.0 |
| 20260905140034 | 20 | 22 | 9.7 | 0.0 | 0.00 | 0.00 | 0.00 | 64 | 1064.0 |
| 20260905135921 | 19 | 337 | 0.0 | 0.0 | 0.00 | 0.00 | 0.00 | 63 | 1064.0 |
| 20260905135815 | 20 | 315 | 4.8 | 0.0 | 0.00 | 0.00 | 0.00 | 63 | 1063.9 |
| 20260905135654 | 19 | 292 | 11.3 | 0.0 | 0.00 | 0.00 | 0.00 | 64 | 1063.9 |
| 20260905135533 | 19 | 315 | 8.0 | 0.0 | 0.00 | 0.00 | 0.00 | 64 | 1063.9 |
| 20260905135422 | 19 | 337 | 12.9 | 0.0 | 0.00 | 0.00 | 0.00 | 64 | 1064.0 |
| 20260905135300 | 19 | 337 | 19.3 | 0.0 | 0.00 | 0.00 | 0.00 | 65 | 1064.0 |
| 20260905135147 | 19 | 270 | 12.9 | 0.0 | 0.00 | 0.00 | 0.00 | 65 | 1063.8 |
| 20260905135035 | 19 | 315 | 9.7 | 0.0 | 0.00 | 0.00 | 0.00 | 66 | 1063.7 |
| 20260905134920 | 19 | 315 | 0.0 | 0.0 | 0.00 | 0.00 | 0.00 | 66 | 1063.9 |
| 20260905134806 | 19 | 225 | 0.0 | 0.0 | 0.00 | 0.00 | 0.00 | 65 | 1063.9 |
| 20260905134653 | 19 | 337 | 1.6 | 0.0 | 0.00 | 0.00 | 0.00 | 65 | 1063.7 |
| 20260905134549 | 19 | 247 | 12.9 | 0.0 | 0.00 | 0.00 | 0.00 | 65 | 1063.8 |
| 20260905134443 | 19 | 315 | 9.7 | 0.0 | 0.00 | 0.00 | 0.00 | 65 | 1063.7 |
| 20260905134337 | 19 | 247 | 11.3 | 0.0 | 0.00 | 0.00 | 0.00 | 65 | 1063.7 |
| 20260905134218 | 19 | 270 | 6.4 | 0.0 | 0.00 | 0.00 | 0.00 | 67 | 1063.8 |
| 20260905134111 | 19 | 247 | 9.7 | 0.0 | 0.00 | 0.00 | 0.00 | 67 | 1063.8 |
| 20260905134007 | 19 | 270 | 27.4 | 0.0 | 0.00 | 0.00 | 0.00 | 68 | 1063.8 |
| 20260905133900 | 18 | 337 | 12.9 | 0.0 | 0.00 | 0.00 | 0.00 | 67 | 1063.8 |
| 20260905133739 | 18 | 292 | 25.7 | 0.0 | 0.00 | 0.00 | 0.00 | 68 | 1063.6 |
| 20260905133626 | 18 | 270 | 8.0 | 0.0 | 0.00 | 0.00 | 0.00 | 69 | 1063.7 |
| 20260905133505 | 18 | 337 | 9.7 | 0.0 | 0.00 | 0.00 | 0.00 | 70 | 1063.8 |
| 20260905133352 | 18 | 315 | 11.3 | 0.0 | 0.00 | 0.00 | 0.00 | 70 | 1063.7 |
| 20260905133249 | 18 | 292 | 8.0 | 0.0 | 0.00 | 0.00 | 0.00 | 70 | 1063.7 |
| 20260905133142 | 18 | 337 | 0.0 | 0.0 | 0.00 | 0.00 | 0.00 | 69 | 1063.7 |
| 20260905133036 | 18 | 315 | 11.3 | 0.0 | 0.00 | 0.00 | 0.00 | 69 | 1063.7 |
| 20260905132926 | 18 | 315 | 25.7 | 0.0 | 0.00 | 0.00 | 0.00 | 68 | 1063.7 |
| 20260905132819 | 18 | 315 | 17.7 | 0.0 | 0.00 | 0.00 | 0.00 | 67 | 1063.7 |
| 20260905132657 | 18 | 0 | 9.7 | 0.0 | 0.00 | 0.00 | 0.00 | 68 | 1063.7 |
| 20260905132545 | 18 | 292 | 17.7 | 0.0 | 0.00 | 0.00 | 0.00 | 67 | 1063.6 |
| 20260905132439 | 19 | 315 | 11.3 | 0.0 | 0.00 | 0.00 | 0.00 | 68 | 1063.6 |
| 20260905132326 | 19 | 270 | 14.5 | 0.0 | 0.00 | 0.00 | 0.00 | 68 | 1063.7 |
| 20260905132205 | 19 | 22 | 11.3 | 0.0 | 0.00 | 0.00 | 0.00 | 69 | 1063.6 |
| 20260905132052 | 19 | 0 | 14.5 | 0.0 | 0.00 | 0.00 | 0.00 | 68 | 1063.6 |
| 20260905131947 | 18 | 315 | 6.4 | 0.0 | 0.00 | 0.00 | 0.00 | 69 | 1063.7 |
| 20260905131825 | 18 | 292 | 9.7 | 0.0 | 0.00 | 0.00 | 0.00 | 68 | 1063.7 |
| 20260905131713 | 18 | 270 | 9.7 | 0.0 | 0.00 | 0.00 | 0.00 | 68 | 1063.7 |
| 20260905131600 | 18 | 315 | 9.7 | 0.0 | 0.00 | 0.00 | 0.00 | 67 | 1063.6 |
| 20260905131438 | 18 | 315 | 8.0 | 0.0 | 0.00 | 0.00 | 0.00 | 67 | 1063.5 |
| 20260905131327 | 18 | 292 | 25.7 | 0.0 | 0.00 | 0.00 | 0.00 | 67 | 1063.6 |
| 20260905131220 | 18 | 337 | 25.7 | 0.0 | 0.00 | 0.00 | 0.00 | 67 | 1063.5 |
| 20260905131107 | 19 | 337 | 12.9 | 0.0 | 0.00 | 0.00 | 0.00 | 66 | 1063.6 |
| 20260905131003 | 19 | 315 | 11.3 | 0.0 | 0.00 | 0.00 | 0.00 | 66 | 1063.6 |
| 20260905130857 | 19 | 292 | 16.1 | 0.0 | 0.00 | 0.00 | 0.00 | 66 | 1063.5 |
| 20260905130752 | 20 | 315 | 12.9 | 0.0 | 0.00 | 0.00 | 0.00 | 66 | 1063.5 |
| 20260905130638 | 20 | 315 | 14.5 | 0.0 | 0.00 | 0.00 | 0.00 | 66 | 1063.5 |
| 20260905130532 | 20 | 292 | 4.8 | 0.0 | 0.00 | 0.00 | 0.00 | 66 | 1063.3 |
| 20260905130421 | 20 | 315 | 22.5 | 0.0 | 0.00 | 0.00 | 0.00 | 65 | 1063.4 |
| 20260905130259 | 20 | 315 | 16.1 | 0.0 | 0.00 | 0.00 | 0.00 | 65 | 1063.3 |
| 20260905130145 | 20 | 337 | 0.0 | 0.0 | 0.00 | 0.00 | 0.00 | 65 | 1063.4 |
| 20260905130032 | 20 | 270 | 9.7 | 0.0 | 0.00 | 0.00 | 0.00 | 64 | 1063.3 |
| 20260905125921 | 20 | 292 | 0.0 | 0.0 | 0.00 | 0.00 | 0.00 | 64 | 1063.2 |
| 20260905125815 | 20 | 337 | 14.5 | 0.0 | 0.00 | 0.00 | 0.00 | 64 | 1063.3 |
| 20260905125710 | 20 | 315 | 0.0 | 0.0 | 0.00 | 0.00 | 0.00 | 64 | 1063.3 |
| 20260905125604 | 20 | 247 | 16.1 | 0.0 | 0.00 | 0.00 | 0.00 | 64 | 1063.2 |
| 20260905125450 | 20 | 337 | 9.7 | 0.0 | 0.00 | 0.00 | 0.00 | 64 | 1063.1 |
| 20260905125321 | 19 | 270 | 9.7 | 0.0 | 0.00 | 0.00 | 0.00 | 65 | 1063.1 |
| 20260905125208 | 19 | 270 | 6.4 | 0.0 | 0.00 | 0.00 | 0.00 | 65 | 1063.1 |
| 20260905125103 | 19 | 225 | 17.7 | 0.0 | 0.00 | 0.00 | 0.00 | 65 | 1063.1 |
| 20260905124957 | 19 | 247 | 9.7 | 0.0 | 0.00 | 0.00 | 0.00 | 65 | 1063.1 |
| 20260905124845 | 19 | 270 | 14.5 | 0.0 | 0.00 | 0.00 | 0.00 | 65 | 1063.1 |
| 20260905124725 | 19 | 292 | 11.3 | 0.0 | 0.00 | 0.00 | 0.00 | 67 | 1063.1 |
| 20260905124618 | 19 | 315 | 14.5 | 0.0 | 0.00 | 0.00 | 0.00 | 68 | 1063.0 |
| 20260905124505 | 19 | 337 | 19.3 | 0.0 | 0.00 | 0.00 | 0.00 | 69 | 1063.0 |
| 20260905124401 | 18 | 315 | 14.5 | 0.0 | 0.00 | 0.00 | 0.00 | 70 | 1063.0 |
| 20260905124254 | 18 | 292 | 6.4 | 0.0 | 0.00 | 0.00 | 0.00 | 70 | 1063.1 |
| 20260905124141 | 18 | 270 | 20.9 | 0.0 | 0.00 | 0.00 | 0.00 | 71 | 1063.0 |
| 20260905124020 | 18 | 337 | 14.5 | 0.0 | 0.00 | 0.00 | 0.00 | 72 | 1062.9 |
| 20260905123906 | 18 | 292 | 12.9 | 0.0 | 0.00 | 0.00 | 0.00 | 73 | 1063.0 |
| 20260905123754 | 18 | 0 | 16.1 | 0.0 | 0.00 | 0.00 | 0.00 | 73 | 1063.0 |
| 20260905123648 | 18 | 315 | 12.9 | 0.0 | 0.00 | 0.00 | 0.00 | 73 | 1063.0 |
| 20260905123526 | 18 | 292 | 11.3 | 0.0 | 0.00 | 0.00 | 0.00 | 73 | 1062.9 |
| 20260905123414 | 18 | 292 | 8.0 | 0.0 | 0.00 | 0.00 | 0.00 | 72 | 1063.0 |
| 20260905123308 | 18 | 337 | 12.9 | 0.0 | 0.00 | 0.00 | 0.00 | 72 | 1062.9 |
| 20260905123153 | 18 | 292 | 9.7 | 0.0 | 0.00 | 0.00 | 0.00 | 71 | 1062.9 |
| 20260905123032 | 18 | 337 | 16.1 | 0.0 | 0.00 | 0.00 | 0.00 | 69 | 1063.0 |
| 20260905122918 | 19 | 315 | 4.8 | 0.0 | 0.00 | 0.00 | 0.00 | 68 | 1062.9 |
| 20260905122805 | 19 | 292 | 17.7 | 0.0 | 0.00 | 0.00 | 0.00 | 67 | 1062.9 |
| 20260905122646 | 20 | 270 | 24.1 | 0.0 | 0.00 | 0.00 | 0.00 | 66 | 1062.9 |
| 20260905122540 | 20 | 315 | 20.9 | 0.0 | 0.00 | 0.00 | 0.00 | 64 | 1062.9 |
| 20260905122436 | 20 | 292 | 30.6 | 0.0 | 0.00 | 0.00 | 0.00 | 62 | 1062.8 |
| 20260905122325 | 20 | 292 | 22.5 | 0.0 | 0.00 | 0.00 | 0.00 | 60 | 1062.8 |
| 20260905122151 | 20 | 292 | 8.0 | 0.0 | 0.00 | 0.00 | 0.00 | 59 | 1062.7 |
| 20260905122038 | 20 | 292 | 9.7 | 0.0 | 0.00 | 0.00 | 0.00 | 60 | 1062.6 |
| 20260905121925 | 20 | 315 | 1.6 | 0.0 | 0.00 | 0.00 | 0.00 | 61 | 1062.6 |
| 20260905121811 | 20 | 45 | 22.5 | 0.0 | 0.00 | 0.00 | 0.00 | 62 | 1062.6 |
| 20260905121650 | 20 | 337 | 14.5 | 0.0 | 0.00 | 0.00 | 0.00 | 62 | 1062.6 |
| 20260905121529 | 20 | 247 | 16.1 | 0.0 | 0.00 | 0.00 | 0.00 | 64 | 1062.6 |
| 20260905121417 | 20 | 315 | 22.5 | 0.0 | 0.00 | 0.00 | 0.00 | 63 | 1062.5 |
| 20260905121303 | 19 | 315 | 33.8 | 0.0 | 0.00 | 0.00 | 0.00 | 66 | 1062.6 |
| 20260905121134 | 19 | 270 | 9.7 | 0.0 | 0.00 | 0.00 | 0.00 | 67 | 1062.5 |
| 20260905121021 | 19 | 270 | 17.7 | 0.0 | 0.00 | 0.00 | 0.00 | 68 | 1062.5 |
| 20260905120915 | 19 | 270 | 8.0 | 0.0 | 0.00 | 0.00 | 0.00 | 68 | 1062.5 |
| 20260905120754 | 18 | 315 | 19.3 | 0.0 | 0.00 | 0.00 | 0.00 | 69 | 1062.5 |
| 20260905120641 | 18 | 292 | 16.1 | 0.0 | 0.00 | 0.00 | 0.00 | 69 | 1062.5 |
| 20260905120527 | 18 | 315 | 9.7 | 0.0 | 0.00 | 0.00 | 0.00 | 69 | 1062.5 |
| 20260905120408 | 18 | 292 | 24.1 | 0.0 | 0.00 | 0.00 | 0.00 | 68 | 1062.4 |
| 20260905120301 | 18 | 0 | 14.5 | 0.0 | 0.00 | 0.00 | 0.00 | 69 | 1062.4 |
| 20260905120148 | 18 | 337 | 0.0 | 0.0 | 0.00 | 0.00 | 0.00 | 71 | 1062.4 |
| 20260905120036 | 18 | 337 | 12.9 | 0.0 | 0.00 | 0.00 | 0.00 | 72 | 1062.3 |
| 20260905115931 | 18 | 270 | 9.7 | 0.0 | 0.00 | 0.05 | 0.00 | 73 | 1062.4 |
| 20260905115825 | 18 | 270 | 14.5 | 0.0 | 0.00 | 0.05 | 0.00 | 73 | 1062.4 |
| 20260905115712 | 18 | 315 | 17.7 | 0.0 | 0.00 | 0.05 | 0.00 | 72 | 1062.3 |
| 20260905115606 | 18 | 247 | 8.0 | 0.0 | 0.00 | 0.05 | 0.00 | 72 | 1062.3 |
| 20260905115443 | 18 | 315 | 11.3 | 0.0 | 0.00 | 0.05 | 0.00 | 71 | 1062.3 |
| 20260905115331 | 18 | 315 | 14.5 | 0.0 | 0.00 | 0.05 | 0.00 | 71 | 1062.2 |
| 20260905115217 | 18 | 292 | 30.6 | 0.0 | 0.00 | 0.05 | 0.00 | 70 | 1062.3 |
| 20260905115105 | 18 | 270 | 29.0 | 0.0 | 0.00 | 0.05 | 0.00 | 72 | 1062.3 |
| 20260905114951 | 18 | 270 | 17.7 | 0.0 | 0.00 | 0.05 | 0.00 | 72 | 1062.3 |
| 20260905114836 | 18 | 292 | 25.7 | 0.0 | 0.00 | 0.05 | 0.00 | 72 | 1062.3 |
| 20260905114715 | 18 | 337 | 0.0 | 0.0 | 0.00 | 0.05 | 0.00 | 72 | 1062.3 |
| 20260905114602 | 18 | 292 | 25.7 | 0.0 | 0.00 | 0.05 | 0.00 | 73 | 1062.2 |
| 20260905114449 | 18 | 315 | 3.2 | 0.0 | 0.00 | 0.05 | 0.00 | 74 | 1062.2 |
| 20260905114344 | 18 | 315 | 12.9 | 0.0 | 0.00 | 0.05 | 0.00 | 74 | 1062.1 |
| 20260905114231 | 18 | 247 | 20.9 | 0.0 | 0.00 | 0.05 | 0.00 | 76 | 1062.2 |
| 20260905114117 | 18 | 225 | 25.7 | 0.0 | 0.00 | 0.05 | 0.00 | 79 | 1062.1 |
| 20260905114006 | 18 | 315 | 6.4 | 0.0 | 0.00 | 0.05 | 0.00 | 79 | 1062.1 |
| 20260905113858 | 17 | 337 | 6.4 | 0.0 | 0.00 | 0.05 | 0.00 | 80 | 1062.1 |
| 20260905113745 | 17 | 315 | 9.7 | 0.0 | 0.00 | 0.05 | 0.00 | 81 | 1062.1 |
| 20260905113631 | 17 | 337 | 8.0 | 0.0 | 0.00 | 0.05 | 0.00 | 81 | 1062.1 |
| 20260905113511 | 17 | 337 | 12.9 | 0.0 | 0.00 | 0.05 | 0.00 | 82 | 1062.2 |
| 20260905113405 | 16 | 315 | 8.0 | 0.0 | 0.00 | 0.05 | 0.00 | 83 | 1062.2 |
| 20260905113253 | 16 | 337 | 11.3 | 0.0 | 0.00 | 0.05 | 0.00 | 84 | 1062.2 |
| 20260905113147 | 16 | 315 | 8.0 | 0.0 | 0.00 | 0.05 | 0.00 | 84 | 1062.1 |
| 20260905113042 | 16 | 315 | 9.7 | 0.0 | 0.00 | 0.05 | 0.00 | 83 | 1062.1 |
| 20260905112937 | 16 | 315 | 9.7 | 0.0 | 0.00 | 0.05 | 0.00 | 83 | 1062.1 |
| 20260905112831 | 16 | 292 | 12.9 | 0.0 | 0.00 | 0.05 | 0.00 | 83 | 1062.0 |
| 20260905112726 | 16 | 315 | 17.7 | 0.0 | 0.00 | 0.05 | 0.00 | 83 | 1062.0 |
| 20260905112613 | 16 | 337 | 6.4 | 0.0 | 0.00 | 0.05 | 0.00 | 83 | 1062.0 |
| 20260905112500 | 16 | 0 | 11.3 | 0.0 | 0.00 | 0.05 | 0.00 | 82 | 1062.0 |
| 20260905112338 | 16 | 315 | 8.0 | 0.0 | 0.00 | 0.05 | 0.00 | 82 | 1062.1 |
| 20260905112234 | 16 | 315 | 17.7 | 0.0 | 0.00 | 0.05 | 0.00 | 82 | 1062.1 |
| 20260905112129 | 16 | 292 | 45.1 | 0.0 | 0.00 | 0.05 | 0.00 | 82 | 1062.1 |
| 20260905112015 | 16 | 315 | 16.1 | 0.0 | 0.00 | 0.05 | 0.00 | 81 | 1062.1 |
| 20260905111854 | 16 | 315 | 9.7 | 0.0 | 0.00 | 0.05 | 0.00 | 80 | 1062.0 |
| 20260905111741 | 16 | 0 | 12.9 | 0.0 | 0.00 | 0.05 | 0.00 | 79 | 1062.0 |
| 20260905111636 | 16 | 337 | 8.0 | 0.0 | 0.00 | 0.05 | 0.00 | 79 | 1062.0 |
| 20260905111516 | 17 | 0 | 11.3 | 0.0 | 0.00 | 0.05 | 0.00 | 78 | 1062.0 |
| 20260905111410 | 17 | 315 | 12.9 | 0.0 | 0.00 | 0.05 | 0.00 | 78 | 1062.0 |
| 20260905111257 | 17 | 292 | 11.3 | 0.0 | 0.00 | 0.05 | 0.00 | 76 | 1062.0 |
| 20260905111152 | 17 | 292 | 11.3 | 0.0 | 0.00 | 0.05 | 0.00 | 75 | 1061.9 |
| 20260905111023 | 17 | 292 | 17.7 | 0.0 | 0.00 | 0.05 | 0.00 | 74 | 1061.9 |
| 20260905110908 | 18 | 292 | 11.3 | 0.0 | 0.00 | 0.05 | 0.00 | 73 | 1061.8 |
| 20260905110740 | 18 | 270 | 19.3 | 0.0 | 0.00 | 0.05 | 0.00 | 71 | 1061.8 |
| 20260905110635 | 18 | 315 | 14.5 | 0.0 | 0.00 | 0.05 | 0.00 | 69 | 1061.7 |
| 20260905110520 | 18 | 270 | 14.5 | 0.0 | 0.00 | 0.05 | 0.00 | 68 | 1061.6 |
| 20260905110359 | 18 | 292 | 14.5 | 0.0 | 0.00 | 0.05 | 0.00 | 69 | 1061.6 |
| 20260905110240 | 18 | 292 | 14.5 | 0.0 | 0.00 | 0.05 | 0.00 | 70 | 1061.5 |
| 20260905110133 | 18 | 315 | 14.5 | 0.0 | 0.00 | 0.05 | 0.00 | 69 | 1061.5 |
| 20260905110020 | 18 | 315 | 17.7 | 0.0 | 0.00 | 0.05 | 0.00 | 70 | 1061.6 |
| 20260905105850 | 18 | 292 | 20.9 | 0.0 | 0.00 | 0.05 | 0.00 | 70 | 1061.4 |
| 20260905105736 | 19 | 292 | 19.3 | 0.0 | 0.00 | 0.05 | 0.00 | 70 | 1061.4 |
| 20260905105618 | 19 | 292 | 11.3 | 0.0 | 0.00 | 0.05 | 0.00 | 69 | 1061.5 |
| 20260905105511 | 20 | 292 | 17.7 | 0.0 | 0.00 | 0.05 | 0.00 | 68 | 1061.5 |
| 20260905105350 | 20 | 225 | 17.7 | 0.0 | 0.00 | 0.05 | 0.00 | 66 | 1061.5 |
| 20260905105244 | 21 | 315 | 20.9 | 0.0 | 0.00 | 0.05 | 0.00 | 63 | 1061.4 |
| 20260905105115 | 21 | 292 | 12.9 | 0.0 | 0.00 | 0.05 | 0.00 | 60 | 1061.3 |
| 20260905105003 | 21 | 0 | 27.4 | 0.0 | 0.00 | 0.05 | 0.00 | 60 | 1061.1 |
| 20260905104851 | 21 | 0 | 6.4 | 0.0 | 0.00 | 0.05 | 0.00 | 60 | 1061.3 |
| 20260905104746 | 21 | 112 | 16.1 | 0.0 | 0.00 | 0.05 | 0.00 | 60 | 1061.2 |
| 20260905104634 | 21 | 315 | 19.3 | 0.0 | 0.00 | 0.05 | 0.00 | 60 | 1061.2 |
| 20260905104526 | 22 | 247 | 19.3 | 0.0 | 0.00 | 0.05 | 0.00 | 60 | 1061.1 |
| 20260905104405 | 22 | 270 | 11.3 | 0.0 | 0.00 | 0.05 | 0.00 | 59 | 1061.1 |
| 20260905104254 | 22 | 0 | 0.0 | 0.0 | 0.00 | 0.05 | 0.00 | 58 | 1061.0 |
| 20260905104149 | 21 | 292 | 27.4 | 0.0 | 0.00 | 0.05 | 0.00 | 58 | 1061.1 |
| 20260905104045 | 21 | 315 | 19.3 | 0.0 | 0.00 | 0.05 | 0.00 | 58 | 1061.1 |
| 20260905103936 | 21 | 315 | 9.7 | 0.0 | 0.00 | 0.05 | 0.00 | 58 | 1061.1 |
| 20260905103815 | 21 | 315 | 17.7 | 0.0 | 0.00 | 0.05 | 0.00 | 58 | 1061.0 |
| 20260905103654 | 21 | 337 | 11.3 | 0.0 | 0.00 | 0.05 | 0.00 | 58 | 1061.0 |
| 20260905103540 | 21 | 337 | 19.3 | 0.0 | 0.00 | 0.05 | 0.00 | 58 | 1061.0 |
| 20260905103419 | 21 | 292 | 12.9 | 0.0 | 0.00 | 0.05 | 0.00 | 58 | 1061.0 |
| 20260905103257 | 21 | 315 | 20.9 | 0.0 | 0.00 | 0.05 | 0.00 | 60 | 1061.0 |
| 20260905103135 | 21 | 292 | 9.7 | 0.0 | 0.00 | 0.05 | 0.00 | 60 | 1061.0 |
| 20260905102959 | 21 | 292 | 0.0 | 0.0 | 0.00 | 0.05 | 0.00 | 59 | 1061.0 |
| 20260905102853 | 21 | 315 | 11.3 | 0.0 | 0.00 | 0.05 | 0.00 | 59 | 1061.0 |
| 20260905102739 | 21 | 337 | 11.3 | 0.0 | 0.00 | 0.05 | 0.00 | 61 | 1060.8 |
| 20260905102618 | 21 | 292 | 17.7 | 0.0 | 0.00 | 0.05 | 0.00 | 62 | 1060.8 |
| 20260905102444 | 21 | 292 | 17.7 | 0.0 | 0.00 | 0.05 | 0.00 | 61 | 1060.8 |
| 20260905102338 | 22 | 270 | 8.0 | 0.0 | 0.00 | 0.05 | 0.00 | 61 | 1060.8 |
| 20260905102233 | 22 | 337 | 19.3 | 0.0 | 0.00 | 0.05 | 0.00 | 62 | 1060.8 |
| 20260905102119 | 22 | 337 | 9.7 | 0.0 | 0.00 | 0.05 | 0.00 | 61 | 1060.8 |
| 20260905102007 | 22 | 247 | 12.9 | 0.0 | 0.00 | 0.05 | 0.00 | 61 | 1060.8 |
| 20260905101852 | 22 | 270 | 0.0 | 0.0 | 0.00 | 0.05 | 0.00 | 60 | 1060.8 |
| 20260905101731 | 22 | 315 | 19.3 | 0.0 | 0.00 | 0.05 | 0.00 | 60 | 1060.8 |
| 20260905101602 | 22 | 337 | 12.9 | 0.0 | 0.00 | 0.05 | 0.00 | 60 | 1060.7 |
| 20260905101449 | 22 | 337 | 4.8 | 0.0 | 0.00 | 0.05 | 0.00 | 59 | 1060.8 |
| 20260905101337 | 22 | 0 | 11.3 | 0.0 | 0.00 | 0.05 | 0.00 | 58 | 1060.7 |
| 20260905101225 | 22 | 292 | 9.7 | 0.0 | 0.00 | 0.05 | 0.00 | 57 | 1060.8 |
| 20260905101119 | 22 | 337 | 6.4 | 0.0 | 0.00 | 0.05 | 0.00 | 57 | 1060.8 |
| 20260905101014 | 22 | 247 | 22.5 | 0.0 | 0.00 | 0.05 | 0.00 | 58 | 1060.7 |
| 20260905100910 | 22 | 247 | 12.9 | 0.0 | 0.00 | 0.05 | 0.00 | 58 | 1060.7 |
| 20260905100742 | 22 | 292 | 0.0 | 0.0 | 0.00 | 0.05 | 0.00 | 58 | 1060.7 |
| 20260905100627 | 22 | 315 | 17.7 | 0.0 | 0.00 | 0.05 | 0.00 | 58 | 1060.7 |
| 20260905100505 | 22 | 315 | 9.7 | 0.0 | 0.00 | 0.05 | 0.00 | 58 | 1060.7 |
| 20260905100326 | 22 | 292 | 38.6 | 0.0 | 0.00 | 0.05 | 0.00 | 58 | 1060.7 |
| 20260905100159 | 22 | 337 | 0.0 | 0.0 | 0.00 | 0.05 | 0.00 | 59 | 1060.7 |
| 20260905100044 | 22 | 247 | 4.8 | 0.0 | 0.00 | 0.05 | 0.00 | 59 | 1060.7 |
| 20260905095925 | 22 | 270 | 8.0 | 0.0 | 0.00 | 0.05 | 0.00 | 59 | 1060.7 |
| 20260905095809 | 22 | 292 | 11.3 | 0.0 | 0.00 | 0.05 | 0.00 | 59 | 1060.6 |
| 20260905095659 | 21 | 337 | 14.5 | 0.0 | 0.00 | 0.05 | 0.00 | 60 | 1060.6 |
| 20260905095554 | 21 | 292 | 9.7 | 0.0 | 0.00 | 0.05 | 0.00 | 60 | 1060.6 |
| 20260905095435 | 21 | 292 | 16.1 | 0.0 | 0.00 | 0.05 | 0.00 | 60 | 1060.6 |
| 20260905095319 | 21 | 315 | 22.5 | 0.0 | 0.00 | 0.05 | 0.00 | 61 | 1060.6 |
| 20260905095207 | 21 | 315 | 24.1 | 0.0 | 0.00 | 0.05 | 0.00 | 62 | 1060.5 |
| 20260905095053 | 21 | 247 | 22.5 | 0.0 | 0.00 | 0.05 | 0.00 | 64 | 1060.5 |
| 20260905094932 | 20 | 270 | 33.8 | 0.0 | 0.00 | 0.05 | 0.00 | 64 | 1060.5 |
| 20260905094819 | 20 | 292 | 11.3 | 0.0 | 0.00 | 0.05 | 0.00 | 64 | 1060.5 |
| 20260905094657 | 20 | 315 | 14.5 | 0.0 | 0.00 | 0.05 | 0.00 | 63 | 1060.5 |
| 20260905094530 | 20 | 337 | 12.9 | 0.0 | 0.00 | 0.05 | 0.00 | 63 | 1060.5 |
| 20260905094423 | 20 | 270 | 24.1 | 0.0 | 0.00 | 0.05 | 0.00 | 63 | 1060.5 |
| 20260905094301 | 20 | 22 | 27.4 | 0.0 | 0.00 | 0.05 | 0.00 | 64 | 1060.4 |
| 20260905094149 | 20 | 315 | 20.9 | 0.0 | 0.00 | 0.05 | 0.00 | 65 | 1060.4 |
| 20260905094035 | 20 | 292 | 11.3 | 0.0 | 0.00 | 0.05 | 0.00 | 65 | 1060.3 |
| 20260905093913 | 19 | 292 | 27.4 | 0.0 | 0.00 | 0.05 | 0.00 | 68 | 1060.3 |
| 20260905093800 | 19 | 315 | 11.3 | 0.0 | 0.00 | 0.05 | 0.00 | 68 | 1060.3 |
| 20260905093656 | 19 | 337 | 12.9 | 0.0 | 0.00 | 0.05 | 0.00 | 68 | 1060.3 |
| 20260905093549 | 18 | 270 | 17.7 | 0.0 | 0.00 | 0.05 | 0.00 | 69 | 1060.4 |
| 20260905093419 | 18 | 292 | 19.3 | 0.0 | 0.00 | 0.05 | 0.00 | 70 | 1060.2 |
| 20260905093301 | 18 | 292 | 27.4 | 0.0 | 0.00 | 0.05 | 0.00 | 71 | 1060.2 |
| 20260905093156 | 18 | 315 | 6.4 | 0.0 | 0.00 | 0.05 | 0.00 | 70 | 1060.1 |
| 20260905093042 | 19 | 315 | 3.2 | 0.0 | 0.00 | 0.05 | 0.00 | 68 | 1060.1 |
| 20260905092920 | 19 | 292 | 9.7 | 0.0 | 0.00 | 0.05 | 0.00 | 68 | 1060.1 |
| 20260905092751 | 20 | 315 | 22.5 | 0.0 | 0.00 | 0.05 | 0.00 | 67 | 1060.1 |
| 20260905092629 | 20 | 337 | 4.8 | 0.0 | 0.00 | 0.05 | 0.00 | 66 | 1060.1 |
| 20260905092515 | 21 | 337 | 14.5 | 0.0 | 0.00 | 0.05 | 0.00 | 62 | 1060.1 |
| 20260905092348 | 22 | 315 | 3.2 | 0.0 | 0.00 | 0.05 | 0.00 | 61 | 1060.1 |
| 20260905092226 | 22 | 247 | 25.7 | 0.0 | 0.00 | 0.05 | 0.00 | 59 | 1060.1 |
| 20260905092121 | 23 | 337 | 8.0 | 0.0 | 0.00 | 0.05 | 0.00 | 57 | 1060.0 |
| 20260905092001 | 23 | 315 | 9.7 | 0.0 | 0.00 | 0.05 | 0.00 | 55 | 1059.9 |
| 20260905091855 | 23 | 247 | 19.3 | 0.0 | 0.00 | 0.05 | 0.00 | 54 | 1059.8 |
| 20260905091733 | 23 | 247 | 37.0 | 0.0 | 0.00 | 0.05 | 0.00 | 54 | 1059.9 |
| 20260905091621 | 23 | 292 | 22.5 | 0.0 | 0.00 | 0.05 | 0.00 | 54 | 1059.9 |
| 20260905091515 | 23 | 270 | 20.9 | 0.0 | 0.00 | 0.05 | 0.00 | 55 | 1059.7 |
| 20260905091354 | 23 | 292 | 14.5 | 0.0 | 0.00 | 0.05 | 0.00 | 55 | 1059.8 |
| 20260905091242 | 23 | 292 | 12.9 | 0.0 | 0.00 | 0.05 | 0.00 | 55 | 1059.8 |
| 20260905091138 | 23 | 292 | 12.9 | 0.0 | 0.00 | 0.05 | 0.00 | 54 | 1059.7 |
| 20260905091030 | 23 | 270 | 20.9 | 0.0 | 0.00 | 0.05 | 0.00 | 55 | 1059.7 |
| 20260905090903 | 23 | 202 | 27.4 | 0.0 | 0.00 | 0.05 | 0.00 | 56 | 1059.7 |
| 20260905090756 | 23 | 315 | 14.5 | 0.0 | 0.00 | 0.05 | 0.00 | 56 | 1059.7 |
| 20260905090636 | 23 | 292 | 8.0 | 0.0 | 0.00 | 0.05 | 0.00 | 56 | 1059.7 |
| 20260905090530 | 23 | 292 | 12.9 | 0.0 | 0.00 | 0.05 | 0.00 | 56 | 1059.7 |
| 20260905090410 | 23 | 247 | 12.9 | 0.0 | 0.00 | 0.05 | 0.00 | 58 | 1059.7 |
| 20260905090304 | 22 | 337 | 11.3 | 0.0 | 0.00 | 0.05 | 0.00 | 58 | 1059.6 |
| 20260905090143 | 22 | 270 | 14.5 | 0.0 | 0.00 | 0.05 | 0.00 | 59 | 1059.6 |
| 20260905090039 | 22 | 202 | 8.0 | 0.0 | 0.00 | 0.05 | 0.00 | 60 | 1059.6 |
| 20260905085934 | 22 | 270 | 9.7 | 0.0 | 0.00 | 0.20 | 0.00 | 61 | 1059.6 |
| 20260905085820 | 22 | 292 | 12.9 | 0.0 | 0.00 | 0.20 | 0.00 | 62 | 1059.6 |
| 20260905085651 | 21 | 315 | 4.8 | 0.0 | 0.00 | 0.20 | 0.00 | 61 | 1059.6 |
| 20260905085522 | 22 | 292 | 19.3 | 0.0 | 0.00 | 0.20 | 0.00 | 61 | 1059.6 |
| 20260905085408 | 22 | 270 | 22.5 | 0.0 | 0.00 | 0.20 | 0.00 | 62 | 1059.5 |
| 20260905085248 | 21 | 315 | 20.9 | 0.0 | 0.00 | 0.20 | 0.00 | 61 | 1059.5 |
| 20260905085119 | 21 | 270 | 16.1 | 0.0 | 0.00 | 0.20 | 0.00 | 62 | 1059.6 |
| 20260905085006 | 21 | 315 | 14.5 | 0.0 | 0.00 | 0.20 | 0.00 | 62 | 1059.5 |
| 20260905084859 | 21 | 337 | 16.1 | 0.0 | 0.00 | 0.20 | 0.00 | 63 | 1059.5 |
| 20260905084748 | 21 | 292 | 16.1 | 0.0 | 0.00 | 0.20 | 0.00 | 62 | 1059.5 |
| 20260905084635 | 21 | 292 | 11.3 | 0.0 | 0.00 | 0.20 | 0.00 | 61 | 1059.5 |
| 20260905084521 | 21 | 315 | 27.4 | 0.0 | 0.00 | 0.20 | 0.00 | 61 | 1059.4 |
| 20260905084408 | 21 | 292 | 3.2 | 0.0 | 0.00 | 0.20 | 0.00 | 62 | 1059.4 |
| 20260905084247 | 22 | 337 | 9.7 | 0.0 | 0.00 | 0.20 | 0.00 | 62 | 1059.3 |
| 20260905084142 | 22 | 315 | 6.4 | 0.0 | 0.00 | 0.20 | 0.00 | 62 | 1059.4 |
| 20260905084023 | 21 | 292 | 22.5 | 0.0 | 0.00 | 0.20 | 0.00 | 63 | 1059.4 |
| 20260905083907 | 21 | 270 | 17.7 | 0.0 | 0.00 | 0.20 | 0.00 | 65 | 1059.3 |
| 20260905083755 | 21 | 270 | 17.7 | 0.0 | 0.00 | 0.20 | 0.00 | 66 | 1059.3 |
| 20260905083648 | 20 | 292 | 29.0 | 0.0 | 0.00 | 0.20 | 0.00 | 68 | 1059.4 |
| 20260905083520 | 20 | 292 | 16.1 | 0.0 | 0.00 | 0.20 | 0.00 | 70 | 1059.3 |
| 20260905083417 | 20 | 0 | 3.2 | 0.0 | 0.00 | 0.20 | 0.00 | 71 | 1059.4 |
| 20260905083309 | 19 | 292 | 9.7 | 0.0 | 0.00 | 0.20 | 0.00 | 72 | 1059.3 |
| 20260905083155 | 18 | 292 | 6.4 | 0.0 | 0.00 | 0.20 | 0.00 | 72 | 1059.3 |
| 20260905083035 | 18 | 292 | 8.0 | 0.0 | 0.00 | 0.20 | 0.00 | 73 | 1059.3 |
| 20260905082928 | 18 | 337 | 0.0 | 0.0 | 0.00 | 0.20 | 0.00 | 72 | 1059.3 |
| 20260905082805 | 18 | 315 | 14.5 | 0.0 | 0.00 | 0.20 | 0.00 | 72 | 1059.3 |
| 20260905082644 | 18 | 292 | 17.7 | 0.0 | 0.00 | 0.20 | 0.00 | 72 | 1059.3 |
| 20260905082522 | 18 | 337 | 0.0 | 0.0 | 0.00 | 0.20 | 0.00 | 73 | 1059.2 |
| 20260905082355 | 18 | 225 | 12.9 | 0.0 | 0.00 | 0.20 | 0.00 | 73 | 1059.3 |
| 20260905082248 | 18 | 337 | 16.1 | 0.0 | 0.00 | 0.20 | 0.00 | 74 | 1059.3 |
| 20260905082136 | 17 | 135 | 11.3 | 0.0 | 0.00 | 0.20 | 0.00 | 76 | 1059.3 |
| 20260905082030 | 17 | 315 | 8.0 | 0.0 | 0.00 | 0.20 | 0.00 | 76 | 1059.3 |
| 20260905081917 | 17 | 337 | 12.9 | 0.0 | 0.00 | 0.20 | 0.00 | 76 | 1059.3 |
| 20260905081756 | 17 | 315 | 6.4 | 0.0 | 0.00 | 0.20 | 0.00 | 76 | 1059.3 |
| 20260905081642 | 17 | 315 | 12.9 | 0.0 | 0.00 | 0.20 | 0.00 | 75 | 1059.3 |
| 20260905081532 | 17 | 315 | 8.0 | 0.0 | 0.00 | 0.20 | 0.00 | 74 | 1059.4 |
| 20260905081424 | 18 | 292 | 9.7 | 0.0 | 0.00 | 0.20 | 0.00 | 73 | 1059.3 |
| 20260905081306 | 18 | 315 | 25.7 | 0.0 | 0.00 | 0.20 | 0.00 | 72 | 1059.4 |
| 20260905081158 | 18 | 315 | 12.9 | 0.0 | 0.00 | 0.20 | 0.00 | 70 | 1059.3 |
| 20260905081045 | 18 | 337 | 0.0 | 0.0 | 0.00 | 0.20 | 0.00 | 69 | 1059.3 |
| 20260905080939 | 18 | 337 | 22.5 | 0.0 | 0.00 | 0.20 | 0.00 | 68 | 1059.2 |
| 20260905080820 | 19 | 292 | 24.1 | 0.0 | 0.00 | 0.20 | 0.00 | 69 | 1059.1 |
| 20260905080715 | 19 | 247 | 8.0 | 0.0 | 0.00 | 0.20 | 0.00 | 68 | 1059.0 |
| 20260905080609 | 19 | 292 | 12.9 | 0.0 | 0.00 | 0.20 | 0.00 | 67 | 1058.9 |
| 20260905080455 | 20 | 315 | 4.8 | 0.0 | 0.00 | 0.20 | 0.00 | 65 | 1058.8 |
| 20260905080342 | 20 | 292 | 17.7 | 0.0 | 0.00 | 0.20 | 0.00 | 64 | 1058.9 |
| 20260905080228 | 20 | 315 | 22.5 | 0.0 | 0.00 | 0.20 | 0.00 | 64 | 1058.8 |
| 20260905080059 | 20 | 0 | 12.9 | 0.0 | 0.00 | 0.20 | 0.00 | 64 | 1058.8 |
| 20260905075945 | 20 | 292 | 11.3 | 0.0 | 0.00 | 0.46 | 0.00 | 64 | 1058.8 |
| 20260905075823 | 20 | 292 | 6.4 | 0.0 | 0.00 | 0.46 | 0.00 | 63 | 1058.8 |
| 20260905075710 | 21 | 337 | 11.3 | 0.0 | 0.00 | 0.46 | 0.00 | 62 | 1058.8 |
| 20260905075557 | 21 | 315 | 12.9 | 0.0 | 0.00 | 0.46 | 0.00 | 60 | 1058.8 |
| 20260905075438 | 21 | 292 | 0.0 | 0.0 | 0.00 | 0.46 | 0.00 | 60 | 1058.8 |
| 20260905075332 | 21 | 292 | 20.9 | 0.0 | 0.00 | 0.46 | 0.00 | 59 | 1058.8 |
| 20260905075219 | 21 | 292 | 19.3 | 0.0 | 0.00 | 0.46 | 0.00 | 60 | 1058.8 |
| 20260905075100 | 21 | 270 | 25.7 | 0.0 | 0.00 | 0.46 | 0.00 | 61 | 1058.7 |
| 20260905074938 | 21 | 315 | 14.5 | 0.0 | 0.00 | 0.46 | 0.00 | 61 | 1058.7 |
| 20260905074816 | 20 | 270 | 9.7 | 0.0 | 0.00 | 0.46 | 0.00 | 64 | 1058.7 |
| 20260905074657 | 20 | 337 | 6.4 | 0.0 | 0.00 | 0.46 | 0.00 | 65 | 1058.7 |
| 20260905074550 | 20 | 315 | 19.3 | 0.0 | 0.00 | 0.46 | 0.00 | 66 | 1058.6 |
| 20260905074445 | 20 | 292 | 14.5 | 0.0 | 0.00 | 0.46 | 0.00 | 65 | 1058.6 |
| 20260905074338 | 19 | 337 | 9.7 | 0.0 | 0.00 | 0.46 | 0.00 | 65 | 1058.6 |
| 20260905074209 | 20 | 337 | 6.4 | 0.0 | 0.00 | 0.46 | 0.00 | 65 | 1058.7 |
| 20260905074055 | 20 | 0 | 3.2 | 0.0 | 0.00 | 0.46 | 0.00 | 65 | 1058.6 |
| 20260905073951 | 20 | 315 | 12.9 | 0.0 | 0.00 | 0.46 | 0.00 | 66 | 1058.7 |
| 20260905073846 | 20 | 270 | 16.1 | 0.0 | 0.00 | 0.46 | 0.00 | 66 | 1058.7 |
| 20260905073733 | 20 | 292 | 8.0 | 0.0 | 0.00 | 0.46 | 0.00 | 65 | 1058.7 |
| 20260905073621 | 21 | 315 | 6.4 | 0.0 | 0.00 | 0.46 | 0.00 | 64 | 1058.7 |
| 20260905073508 | 21 | 315 | 12.9 | 0.0 | 0.00 | 0.46 | 0.00 | 64 | 1058.6 |
| 20260905073400 | 21 | 337 | 19.3 | 0.0 | 0.00 | 0.46 | 0.00 | 64 | 1058.6 |
| 20260905073247 | 21 | 337 | 16.1 | 0.0 | 0.00 | 0.46 | 0.00 | 64 | 1058.5 |
| 20260905073125 | 21 | 270 | 24.1 | 0.0 | 0.00 | 0.46 | 0.00 | 65 | 1058.5 |
| 20260905073012 | 20 | 292 | 11.3 | 0.0 | 0.00 | 0.46 | 0.00 | 65 | 1058.5 |
| 20260905072858 | 20 | 337 | 0.0 | 0.0 | 0.00 | 0.46 | 0.00 | 64 | 1058.5 |
| 20260905072745 | 20 | 315 | 9.7 | 0.0 | 0.00 | 0.46 | 0.00 | 62 | 1058.5 |
| 20260905072633 | 21 | 337 | 9.7 | 0.0 | 0.00 | 0.46 | 0.00 | 61 | 1058.4 |
| 20260905072520 | 21 | 292 | 29.0 | 0.0 | 0.00 | 0.46 | 0.00 | 60 | 1058.5 |
| 20260905072415 | 22 | 292 | 14.5 | 0.0 | 0.00 | 0.46 | 0.00 | 61 | 1058.5 |
| 20260905072305 | 22 | 292 | 14.5 | 0.0 | 0.00 | 0.46 | 0.00 | 61 | 1058.4 |
| 20260905072157 | 22 | 292 | 16.1 | 0.0 | 0.00 | 0.46 | 0.00 | 62 | 1058.4 |
| 20260905072044 | 22 | 292 | 11.3 | 0.0 | 0.00 | 0.46 | 0.00 | 61 | 1058.5 |
| 20260905071927 | 21 | 337 | 25.7 | 0.0 | 0.00 | 0.46 | 0.00 | 62 | 1058.4 |
| 20260905071818 | 21 | 292 | 9.7 | 0.0 | 0.00 | 0.46 | 0.00 | 62 | 1058.4 |
| 20260905071705 | 21 | 292 | 14.5 | 0.0 | 0.00 | 0.46 | 0.00 | 63 | 1058.4 |
| 20260905071600 | 21 | 270 | 14.5 | 0.0 | 0.00 | 0.46 | 0.00 | 63 | 1058.4 |
| 20260905071448 | 21 | 337 | 25.7 | 0.0 | 0.00 | 0.46 | 0.00 | 64 | 1058.4 |
| 20260905071341 | 21 | 315 | 14.5 | 0.0 | 0.00 | 0.46 | 0.00 | 64 | 1058.4 |
| 20260905071223 | 20 | 337 | 0.0 | 0.0 | 0.00 | 0.46 | 0.00 | 65 | 1058.5 |
| 20260905071118 | 20 | 337 | 14.5 | 0.0 | 0.00 | 0.46 | 0.00 | 66 | 1058.4 |
| 20260905071010 | 20 | 292 | 11.3 | 0.0 | 0.00 | 0.46 | 0.00 | 67 | 1058.4 |
| 20260905070851 | 19 | 315 | 9.7 | 0.0 | 0.00 | 0.46 | 0.00 | 68 | 1058.4 |
| 20260905070736 | 18 | 270 | 8.0 | 0.0 | 0.00 | 0.46 | 0.00 | 69 | 1058.4 |
| 20260905070622 | 18 | 292 | 16.1 | 0.0 | 0.00 | 0.46 | 0.00 | 69 | 1058.4 |
| 20260905070510 | 18 | 315 | 9.7 | 0.0 | 0.00 | 0.46 | 0.00 | 69 | 1058.5 |
| 20260905070357 | 18 | 247 | 9.7 | 0.0 | 0.00 | 0.46 | 0.00 | 69 | 1058.5 |
| 20260905070243 | 18 | 337 | 11.3 | 0.0 | 0.00 | 0.46 | 0.00 | 68 | 1058.5 |
| 20260905070129 | 18 | 315 | 12.9 | 0.0 | 0.00 | 0.46 | 0.00 | 69 | 1058.5 |
| 20260905070016 | 18 | 315 | 24.1 | 0.0 | 0.00 | 0.46 | 0.00 | 68 | 1058.5 |
| 20260905065903 | 18 | 315 | 9.7 | 0.0 | 0.00 | 1.30 | 0.00 | 69 | 1058.4 |
| 20260905065745 | 18 | 315 | 6.4 | 0.0 | 0.00 | 1.30 | 0.00 | 69 | 1058.4 |
| 20260905065638 | 18 | 315 | 14.5 | 0.0 | 0.00 | 1.30 | 0.00 | 70 | 1058.4 |
| 20260905065525 | 18 | 292 | 16.1 | 0.0 | 0.00 | 1.30 | 0.00 | 70 | 1058.5 |
| 20260905065413 | 18 | 292 | 6.4 | 0.0 | 0.00 | 1.30 | 0.00 | 69 | 1058.4 |
| 20260905065307 | 18 | 292 | 9.7 | 0.0 | 0.00 | 1.30 | 0.00 | 68 | 1058.3 |
| 20260905065155 | 18 | 292 | 14.5 | 0.0 | 0.00 | 1.30 | 0.00 | 68 | 1058.4 |
| 20260905065049 | 18 | 270 | 29.0 | 0.0 | 0.00 | 1.30 | 0.00 | 68 | 1058.3 |
| 20260905064943 | 19 | 292 | 19.3 | 0.0 | 0.00 | 1.30 | 0.00 | 68 | 1058.3 |
| 20260905064822 | 19 | 292 | 14.5 | 0.0 | 0.00 | 1.30 | 0.00 | 68 | 1058.3 |
| 20260905064717 | 19 | 292 | 14.5 | 0.0 | 0.00 | 1.30 | 0.00 | 68 | 1058.2 |
| 20260905064612 | 19 | 315 | 8.0 | 0.0 | 0.00 | 1.30 | 0.00 | 68 | 1058.3 |
| 20260905064501 | 20 | 315 | 8.0 | 0.0 | 0.00 | 1.30 | 0.00 | 68 | 1058.2 |
| 20260905064353 | 20 | 270 | 6.4 | 0.0 | 0.00 | 1.30 | 0.00 | 68 | 1058.1 |
| 20260905064232 | 20 | 270 | 20.9 | 0.0 | 0.00 | 1.30 | 0.00 | 67 | 1058.2 |
| 20260905064118 | 20 | 270 | 8.0 | 0.0 | 0.00 | 1.30 | 0.00 | 67 | 1058.2 |
| 20260905063958 | 20 | 292 | 9.7 | 0.0 | 0.00 | 1.30 | 0.00 | 68 | 1058.2 |
| 20260905063821 | 20 | 292 | 6.4 | 0.0 | 0.00 | 1.30 | 0.00 | 68 | 1058.2 |
| 20260905063710 | 20 | 315 | 16.1 | 0.0 | 0.00 | 1.30 | 0.00 | 68 | 1058.1 |
| 20260905063603 | 20 | 337 | 11.3 | 0.0 | 0.00 | 1.30 | 0.00 | 67 | 1058.0 |
| 20260905063500 | 20 | 315 | 3.2 | 0.0 | 0.00 | 1.30 | 0.00 | 67 | 1058.1 |
| 20260905063353 | 20 | 315 | 11.3 | 0.0 | 0.00 | 1.30 | 0.00 | 66 | 1058.0 |
| 20260905063248 | 20 | 270 | 20.9 | 0.0 | 0.00 | 1.30 | 0.00 | 67 | 1058.0 |
| 20260905063127 | 20 | 292 | 14.5 | 0.0 | 0.00 | 1.30 | 0.00 | 67 | 1058.0 |
| 20260905063005 | 20 | 270 | 12.9 | 0.0 | 0.00 | 1.30 | 0.00 | 67 | 1058.0 |
| 20260905062852 | 20 | 315 | 20.9 | 0.0 | 0.00 | 1.30 | 0.00 | 68 | 1057.9 |
| 20260905062739 | 20 | 337 | 0.0 | 0.0 | 0.00 | 1.30 | 0.00 | 68 | 1057.9 |
| 20260905062636 | 20 | 337 | 9.7 | 0.0 | 0.00 | 1.30 | 0.00 | 68 | 1058.0 |
| 20260905062528 | 19 | 337 | 9.7 | 0.0 | 0.00 | 1.30 | 0.00 | 68 | 1058.0 |
| 20260905062418 | 19 | 292 | 20.9 | 0.0 | 0.00 | 1.30 | 0.00 | 69 | 1057.8 |
| 20260905062310 | 18 | 0 | 4.8 | 0.0 | 0.00 | 1.30 | 0.00 | 69 | 1057.9 |
| 20260905062148 | 18 | 315 | 3.2 | 0.0 | 0.00 | 1.30 | 0.00 | 69 | 1057.8 |
| 20260905062036 | 18 | 292 | 8.0 | 0.0 | 0.00 | 1.30 | 0.00 | 68 | 1057.9 |
| 20260905061915 | 18 | 315 | 9.7 | 0.0 | 0.00 | 1.30 | 0.00 | 67 | 1057.8 |
| 20260905061746 | 19 | 315 | 22.5 | 0.0 | 0.00 | 1.30 | 0.00 | 68 | 1057.8 |
| 20260905061624 | 19 | 337 | 17.7 | 0.0 | 0.00 | 1.30 | 0.00 | 69 | 1057.8 |
| 20260905061511 | 19 | 292 | 12.9 | 0.0 | 0.00 | 1.30 | 0.00 | 69 | 1057.8 |
| 20260905061350 | 20 | 315 | 30.6 | 0.0 | 0.00 | 1.30 | 0.00 | 68 | 1057.9 |
| 20260905061236 | 19 | 292 | 9.7 | 0.0 | 0.00 | 1.30 | 0.00 | 68 | 1057.8 |
| 20260905061118 | 19 | 0 | 8.0 | 0.0 | 0.00 | 1.30 | 0.00 | 69 | 1057.7 |
| 20260905061010 | 19 | 315 | 14.5 | 0.0 | 0.00 | 1.30 | 0.00 | 69 | 1057.8 |
| 20260905060849 | 18 | 270 | 6.4 | 0.0 | 0.00 | 1.30 | 0.00 | 69 | 1057.8 |
| 20260905060720 | 18 | 292 | 4.8 | 0.0 | 0.00 | 1.30 | 0.00 | 70 | 1057.8 |
| 20260905060607 | 18 | 315 | 9.7 | 0.0 | 0.00 | 1.30 | 0.00 | 71 | 1057.9 |
| 20260905060502 | 18 | 292 | 8.0 | 0.0 | 0.00 | 1.30 | 0.00 | 71 | 1057.8 |
| 20260905060349 | 18 | 270 | 22.5 | 0.0 | 0.00 | 1.30 | 0.00 | 72 | 1057.8 |
| 20260905060236 | 18 | 270 | 17.7 | 0.0 | 0.00 | 1.30 | 0.00 | 72 | 1057.8 |
| 20260905060123 | 18 | 315 | 6.4 | 0.0 | 0.00 | 1.30 | 0.00 | 73 | 1057.8 |
| 20260905060017 | 18 | 270 | 0.0 | 0.0 | 0.00 | 1.30 | 0.00 | 73 | 1057.8 |
| 20260905055905 | 18 | 315 | 12.9 | 0.0 | 0.00 | 1.80 | 0.00 | 74 | 1057.8 |
| 20260905055800 | 18 | 337 | 3.2 | 0.0 | 0.00 | 1.80 | 0.00 | 74 | 1057.7 |
| 20260905055654 | 18 | 315 | 0.0 | 0.0 | 0.00 | 1.80 | 0.00 | 74 | 1057.6 |
| 20260905055549 | 18 | 315 | 14.5 | 0.0 | 0.00 | 1.80 | 0.00 | 75 | 1057.8 |
| 20260905055429 | 17 | 270 | 0.0 | 0.0 | 0.00 | 1.80 | 0.00 | 75 | 1057.8 |
| 20260905055314 | 17 | 337 | 8.0 | 0.0 | 0.00 | 1.80 | 0.00 | 76 | 1057.8 |
| 20260905055202 | 17 | 315 | 20.9 | 0.0 | 0.00 | 1.80 | 0.00 | 77 | 1057.6 |
| 20260905055056 | 17 | 337 | 4.8 | 0.0 | 0.00 | 1.80 | 0.00 | 77 | 1057.6 |
| 20260905054952 | 17 | 0 | 20.9 | 0.0 | 0.00 | 1.80 | 0.00 | 77 | 1057.7 |
| 20260905054845 | 17 | 292 | 22.5 | 0.0 | 0.00 | 1.80 | 0.00 | 77 | 1057.7 |
| 20260905054724 | 17 | 270 | 9.7 | 0.0 | 0.00 | 1.80 | 0.00 | 77 | 1057.7 |
| 20260905054611 | 17 | 315 | 9.7 | 0.0 | 0.00 | 1.80 | 0.00 | 77 | 1057.6 |
| 20260905054505 | 17 | 270 | 27.4 | 0.0 | 0.00 | 1.80 | 0.00 | 77 | 1057.6 |
| 20260905054400 | 17 | 270 | 0.0 | 0.0 | 0.00 | 1.80 | 0.00 | 77 | 1057.5 |
| 20260905054254 | 17 | 247 | 19.3 | 0.0 | 0.00 | 1.80 | 0.00 | 77 | 1057.6 |
| 20260905054140 | 17 | 22 | 8.0 | 0.0 | 0.00 | 1.80 | 0.00 | 76 | 1057.6 |
| 20260905054010 | 17 | 292 | 8.0 | 0.0 | 0.00 | 1.80 | 0.00 | 76 | 1057.6 |
| 20260905053842 | 17 | 315 | 17.7 | 0.0 | 0.00 | 1.80 | 0.00 | 76 | 1057.6 |
| 20260905053739 | 17 | 292 | 14.5 | 0.0 | 0.00 | 1.80 | 0.00 | 77 | 1057.5 |
| 20260905053633 | 17 | 292 | 11.3 | 0.0 | 0.00 | 1.80 | 0.00 | 77 | 1057.5 |
| 20260905053518 | 17 | 292 | 9.7 | 0.0 | 0.00 | 1.80 | 0.00 | 77 | 1057.5 |
| 20260905053405 | 17 | 315 | 19.3 | 0.0 | 0.00 | 1.80 | 0.00 | 76 | 1057.5 |
| 20260905053247 | 17 | 315 | 6.4 | 0.0 | 0.00 | 1.80 | 0.00 | 76 | 1057.5 |
| 20260905053140 | 17 | 0 | 6.4 | 0.0 | 0.00 | 1.80 | 0.00 | 76 | 1057.4 |
| 20260905053034 | 17 | 292 | 14.5 | 0.0 | 0.00 | 1.80 | 0.00 | 77 | 1057.5 |
| 20260905052921 | 17 | 270 | 6.4 | 0.0 | 0.00 | 1.80 | 0.00 | 77 | 1057.5 |
| 20260905052808 | 17 | 315 | 6.4 | 0.0 | 0.00 | 1.80 | 0.00 | 78 | 1057.4 |
| 20260905052702 | 17 | 270 | 16.1 | 0.0 | 0.00 | 1.80 | 0.00 | 78 | 1057.4 |
| 20260905052556 | 17 | 292 | 14.5 | 0.0 | 0.00 | 1.80 | 0.00 | 78 | 1057.4 |
| 20260905052442 | 17 | 292 | 12.9 | 0.0 | 0.00 | 1.80 | 0.00 | 78 | 1057.4 |
| 20260905052338 | 17 | 292 | 14.5 | 0.0 | 0.00 | 1.80 | 0.00 | 78 | 1057.4 |
| 20260905052223 | 17 | 270 | 0.0 | 0.0 | 0.00 | 1.80 | 0.00 | 79 | 1057.4 |
| 20260905052115 | 17 | 337 | 16.1 | 0.0 | 0.00 | 1.80 | 0.00 | 79 | 1057.4 |
| 20260905052002 | 16 | 292 | 12.9 | 0.0 | 0.00 | 1.80 | 0.00 | 80 | 1057.4 |
| 20260905051845 | 16 | 315 | 8.0 | 0.0 | 0.00 | 1.80 | 0.00 | 79 | 1057.4 |
| 20260905051730 | 16 | 270 | 0.0 | 0.0 | 0.00 | 1.80 | 0.00 | 79 | 1057.4 |
| 20260905051610 | 16 | 292 | 11.3 | 0.0 | 0.00 | 1.80 | 0.00 | 79 | 1057.4 |
| 20260905051447 | 16 | 292 | 3.2 | 0.0 | 0.00 | 1.80 | 0.00 | 79 | 1057.5 |
| 20260905051332 | 16 | 270 | 25.7 | 0.0 | 0.00 | 1.80 | 0.00 | 79 | 1057.4 |
| 20260905051228 | 16 | 270 | 9.7 | 0.0 | 0.00 | 1.80 | 0.00 | 79 | 1057.4 |
| 20260905051120 | 16 | 292 | 12.9 | 0.0 | 0.00 | 1.80 | 0.00 | 80 | 1057.4 |
| 20260905050959 | 16 | 315 | 11.3 | 0.0 | 0.00 | 1.80 | 0.00 | 80 | 1057.4 |
| 20260905050845 | 16 | 292 | 12.9 | 0.0 | 0.00 | 1.80 | 0.00 | 80 | 1057.4 |
| 20260905050733 | 16 | 315 | 17.7 | 0.0 | 0.00 | 1.80 | 0.00 | 80 | 1057.4 |
| 20260905050620 | 16 | 247 | 19.3 | 0.0 | 0.00 | 1.80 | 0.00 | 80 | 1057.4 |
| 20260905050459 | 16 | 270 | 12.9 | 0.0 | 0.00 | 1.80 | 0.00 | 80 | 1057.4 |
| 20260905050353 | 16 | 337 | 17.7 | 0.0 | 0.00 | 1.80 | 0.00 | 79 | 1057.4 |
| 20260905050243 | 16 | 292 | 9.7 | 0.0 | 0.00 | 1.80 | 0.00 | 79 | 1057.4 |
| 20260905050135 | 16 | 292 | 12.9 | 0.0 | 0.00 | 1.80 | 0.00 | 79 | 1057.3 |
| 20260905050014 | 16 | 315 | 0.0 | 0.0 | 0.00 | 1.80 | 0.00 | 78 | 1057.2 |
| 20260905045901 | 17 | 270 | 3.2 | 0.0 | 0.00 | 1.85 | 0.00 | 78 | 1057.3 |
| 20260905045749 | 17 | 247 | 16.1 | 0.0 | 0.00 | 1.85 | 0.00 | 77 | 1057.3 |
| 20260905045641 | 17 | 292 | 20.9 | 0.0 | 0.00 | 1.85 | 0.00 | 77 | 1057.3 |
| 20260905045529 | 17 | 270 | 12.9 | 0.0 | 0.00 | 1.85 | 0.00 | 77 | 1057.2 |
| 20260905045424 | 17 | 292 | 19.3 | 0.0 | 0.00 | 1.85 | 0.00 | 76 | 1057.2 |
| 20260905045311 | 17 | 337 | 16.1 | 0.0 | 0.00 | 1.85 | 0.00 | 76 | 1057.3 |
| 20260905045205 | 17 | 292 | 14.5 | 0.0 | 0.00 | 1.85 | 0.00 | 75 | 1057.3 |
| 20260905045053 | 17 | 0 | 6.4 | 0.0 | 0.00 | 1.85 | 0.00 | 75 | 1057.3 |
| 20260905044948 | 17 | 315 | 20.9 | 0.0 | 0.00 | 1.85 | 0.00 | 75 | 1057.3 |
| 20260905044843 | 17 | 270 | 25.7 | 0.0 | 0.00 | 1.85 | 0.00 | 74 | 1057.2 |
| 20260905044737 | 17 | 292 | 17.7 | 0.0 | 0.00 | 1.85 | 0.00 | 74 | 1057.1 |
| 20260905044625 | 17 | 315 | 22.5 | 0.0 | 0.00 | 1.85 | 0.00 | 74 | 1057.2 |
| 20260905044519 | 17 | 45 | 0.0 | 0.0 | 0.00 | 1.85 | 0.00 | 74 | 1057.1 |
| 20260905044406 | 17 | 270 | 0.0 | 0.0 | 0.00 | 1.85 | 0.00 | 74 | 1057.2 |
| 20260905044301 | 17 | 247 | 8.0 | 0.0 | 0.00 | 1.85 | 0.00 | 74 | 1057.2 |
| 20260905044148 | 17 | 292 | 9.7 | 0.0 | 0.00 | 1.85 | 0.00 | 75 | 1057.2 |
| 20260905044026 | 17 | 247 | 16.1 | 0.0 | 0.00 | 1.85 | 0.00 | 78 | 1057.2 |
| 20260905043914 | 17 | 270 | 8.0 | 0.0 | 0.00 | 1.85 | 0.00 | 78 | 1057.2 |
| 20260905043754 | 17 | 270 | 0.0 | 0.0 | 0.00 | 1.85 | 0.00 | 78 | 1057.2 |
| 20260905043648 | 17 | 292 | 11.3 | 0.0 | 0.00 | 1.85 | 0.00 | 78 | 1057.2 |
| 20260905043531 | 17 | 292 | 8.0 | 0.0 | 0.00 | 1.85 | 0.00 | 78 | 1057.2 |
| 20260905043421 | 17 | 270 | 0.0 | 0.0 | 0.00 | 1.85 | 0.00 | 78 | 1057.2 |
| 20260905043308 | 17 | 247 | 11.3 | 0.0 | 0.00 | 1.85 | 0.00 | 78 | 1057.2 |
| 20260905043139 | 17 | 292 | 8.0 | 0.0 | 0.00 | 1.85 | 0.00 | 78 | 1057.2 |
| 20260905043017 | 17 | 315 | 0.0 | 0.0 | 0.00 | 1.85 | 0.00 | 78 | 1057.2 |
| 20260905042907 | 17 | 315 | 11.3 | 0.0 | 0.00 | 1.85 | 0.00 | 78 | 1057.2 |
| 20260905042759 | 17 | 292 | 11.3 | 0.0 | 0.00 | 1.85 | 0.00 | 77 | 1057.2 |
| 20260905042646 | 17 | 315 | 3.2 | 0.0 | 0.00 | 1.85 | 0.00 | 77 | 1057.2 |
| 20260905042525 | 17 | 292 | 20.9 | 0.0 | 0.00 | 1.85 | 0.00 | 77 | 1057.1 |
| 20260905042403 | 17 | 337 | 11.3 | 0.0 | 0.00 | 1.85 | 0.00 | 77 | 1057.1 |
| 20260905042250 | 17 | 202 | 17.7 | 0.0 | 0.00 | 1.85 | 0.00 | 76 | 1057.1 |
| 20260905042138 | 17 | 337 | 0.0 | 0.0 | 0.00 | 1.85 | 0.00 | 76 | 1057.1 |
| 20260905042026 | 17 | 292 | 8.0 | 0.0 | 0.00 | 1.85 | 0.00 | 76 | 1057.1 |
| 20260905041920 | 17 | 270 | 9.7 | 0.0 | 0.00 | 1.85 | 0.00 | 75 | 1057.1 |
| 20260905041729 | 17 | 292 | 12.9 | 0.0 | 0.00 | 1.85 | 0.00 | 76 | 1057.0 |
| 20260905041606 | 17 | 315 | 12.9 | 0.0 | 0.00 | 1.85 | 0.00 | 76 | 1057.1 |
| 20260905041437 | 17 | 292 | 9.7 | 0.0 | 0.00 | 1.85 | 0.00 | 77 | 1057.1 |
| 20260905041313 | 17 | 315 | 14.5 | 0.0 | 0.00 | 1.85 | 0.00 | 77 | 1057.0 |
| 20260905041144 | 17 | 202 | 6.4 | 0.0 | 0.00 | 1.85 | 0.00 | 78 | 1057.1 |
| 20260905041031 | 17 | 270 | 20.9 | 0.0 | 0.00 | 1.85 | 0.00 | 78 | 1057.0 |
| 20260905040926 | 17 | 315 | 0.0 | 0.0 | 0.00 | 1.85 | 0.00 | 77 | 1057.1 |
| 20260905040815 | 17 | 292 | 14.5 | 0.0 | 0.00 | 1.85 | 0.00 | 77 | 1057.0 |
| 20260905040710 | 17 | 337 | 20.9 | 0.0 | 0.00 | 1.85 | 0.00 | 78 | 1057.1 |
| 20260905040547 | 17 | 315 | 0.0 | 0.0 | 0.00 | 1.85 | 0.00 | 78 | 1057.1 |
| 20260905040425 | 17 | 247 | 16.1 | 0.0 | 0.00 | 1.85 | 0.00 | 78 | 1057.0 |
| 20260905040304 | 17 | 247 | 22.5 | 0.0 | 0.00 | 1.85 | 0.00 | 78 | 1057.1 |
| 20260905040151 | 17 | 315 | 0.0 | 0.0 | 0.00 | 1.85 | 0.00 | 78 | 1057.1 |
| 20260905040046 | 17 | 292 | 8.0 | 0.0 | 0.00 | 1.85 | 0.00 | 78 | 1057.1 |
| 20260905035933 | 17 | 270 | 6.4 | 0.0 | 0.00 | 1.85 | 0.00 | 77 | 1057.0 |
| 20260905035812 | 17 | 292 | 12.9 | 0.0 | 0.00 | 1.85 | 0.00 | 77 | 1057.0 |
| 20260905035707 | 17 | 292 | 11.3 | 0.0 | 0.00 | 1.85 | 0.00 | 76 | 1057.1 |
| 20260905035554 | 17 | 292 | 11.3 | 0.0 | 0.00 | 1.85 | 0.00 | 76 | 1057.1 |
| 20260905035433 | 17 | 315 | 12.9 | 0.0 | 0.00 | 1.85 | 0.00 | 76 | 1057.0 |
| 20260905035320 | 17 | 292 | 19.3 | 0.0 | 0.00 | 1.85 | 0.00 | 76 | 1057.1 |
| 20260905035215 | 17 | 337 | 0.0 | 0.0 | 0.00 | 1.85 | 0.00 | 75 | 1057.1 |
| 20260905035109 | 17 | 315 | 0.0 | 0.0 | 0.00 | 1.85 | 0.00 | 75 | 1057.0 |
| 20260905034957 | 17 | 292 | 6.4 | 0.0 | 0.00 | 1.85 | 0.00 | 75 | 1057.1 |
| 20260905034852 | 17 | 270 | 8.0 | 0.0 | 0.00 | 1.85 | 0.00 | 75 | 1057.1 |
| 20260905034746 | 17 | 292 | 17.7 | 0.0 | 0.00 | 1.85 | 0.00 | 75 | 1057.0 |
| 20260905034633 | 17 | 247 | 11.3 | 0.0 | 0.00 | 1.85 | 0.00 | 75 | 1057.0 |
| 20260905034519 | 17 | 315 | 4.8 | 0.0 | 0.00 | 1.85 | 0.00 | 75 | 1057.0 |
| 20260905034358 | 17 | 315 | 11.3 | 0.0 | 0.00 | 1.85 | 0.00 | 75 | 1057.1 |
| 20260905034238 | 17 | 315 | 4.8 | 0.0 | 0.00 | 1.85 | 0.00 | 75 | 1057.0 |
| 20260905034135 | 17 | 315 | 19.3 | 0.0 | 0.00 | 1.85 | 0.00 | 75 | 1057.1 |
| 20260905034027 | 17 | 292 | 11.3 | 0.0 | 0.00 | 1.85 | 0.00 | 75 | 1057.1 |
| 20260905033916 | 17 | 292 | 17.7 | 0.0 | 0.00 | 1.85 | 0.00 | 76 | 1057.0 |
| 20260905033801 | 17 | 247 | 19.3 | 0.0 | 0.00 | 1.85 | 0.00 | 76 | 1057.1 |
| 20260905033647 | 17 | 292 | 8.0 | 0.0 | 0.00 | 1.85 | 0.00 | 76 | 1057.1 |
| 20260905033519 | 17 | 292 | 8.0 | 0.0 | 0.00 | 1.85 | 0.00 | 75 | 1057.1 |
| 20260905033414 | 17 | 292 | 3.2 | 0.0 | 0.00 | 1.85 | 0.00 | 75 | 1057.1 |
| 20260905033308 | 17 | 270 | 9.7 | 0.0 | 0.00 | 1.85 | 0.00 | 74 | 1057.1 |
| 20260905033155 | 17 | 337 | 9.7 | 0.0 | 0.00 | 1.85 | 0.00 | 74 | 1057.1 |
| 20260905033044 | 17 | 315 | 12.9 | 0.0 | 0.00 | 1.85 | 0.00 | 75 | 1057.1 |
| 20260905032938 | 17 | 337 | 8.0 | 0.0 | 0.00 | 1.85 | 0.00 | 75 | 1057.1 |
| 20260905032832 | 17 | 270 | 9.7 | 0.0 | 0.00 | 1.85 | 0.00 | 75 | 1057.1 |
| 20260905032711 | 17 | 337 | 11.3 | 0.0 | 0.00 | 1.85 | 0.00 | 76 | 1057.0 |
| 20260905032550 | 17 | 0 | 8.0 | 0.0 | 0.00 | 1.85 | 0.00 | 76 | 1057.0 |
| 20260905032445 | 17 | 270 | 4.8 | 0.0 | 0.00 | 1.85 | 0.00 | 76 | 1057.1 |
| 20260905032334 | 17 | 315 | 20.9 | 0.0 | 0.00 | 1.85 | 0.00 | 76 | 1057.1 |
| 20260905032218 | 17 | 270 | 8.0 | 0.0 | 0.00 | 1.85 | 0.00 | 75 | 1057.0 |
| 20260905032058 | 17 | 22 | 14.5 | 0.0 | 0.00 | 1.85 | 0.00 | 75 | 1057.1 |
| 20260905031945 | 17 | 315 | 12.9 | 0.0 | 0.00 | 1.85 | 0.00 | 75 | 1057.0 |
| 20260905031831 | 17 | 292 | 20.9 | 0.0 | 0.00 | 1.85 | 0.00 | 75 | 1057.0 |
| 20260905031710 | 17 | 0 | 0.0 | 0.0 | 0.00 | 1.85 | 0.00 | 75 | 1057.1 |
| 20260905031606 | 17 | 337 | 0.0 | 0.0 | 0.00 | 1.85 | 0.00 | 75 | 1057.0 |
| 20260905031459 | 17 | 0 | 0.0 | 0.0 | 0.00 | 1.85 | 0.00 | 75 | 1057.0 |
| 20260905031347 | 17 | 292 | 3.2 | 0.0 | 0.00 | 1.85 | 0.00 | 75 | 1057.1 |
| 20260905031234 | 17 | 315 | 9.7 | 0.0 | 0.00 | 1.85 | 0.00 | 75 | 1057.0 |
| 20260905031129 | 17 | 315 | 14.5 | 0.0 | 0.00 | 1.85 | 0.00 | 75 | 1057.1 |
| 20260905031007 | 17 | 292 | 6.4 | 0.0 | 0.00 | 1.85 | 0.00 | 75 | 1057.1 |
| 20260905030854 | 17 | 315 | 3.2 | 0.0 | 0.00 | 1.85 | 0.00 | 76 | 1057.0 |
| 20260905030749 | 17 | 315 | 14.5 | 0.0 | 0.00 | 1.85 | 0.00 | 76 | 1057.0 |
| 20260905030628 | 17 | 270 | 20.9 | 0.0 | 0.00 | 1.85 | 0.00 | 76 | 1057.1 |
| 20260905030459 | 17 | 337 | 16.1 | 0.0 | 0.00 | 1.85 | 0.00 | 76 | 1057.0 |
| 20260905030352 | 17 | 315 | 14.5 | 0.0 | 0.00 | 1.85 | 0.00 | 76 | 1057.0 |
| 20260905030240 | 17 | 292 | 8.0 | 0.0 | 0.00 | 1.85 | 0.00 | 76 | 1057.0 |
| 20260905030120 | 17 | 292 | 14.5 | 0.0 | 0.00 | 1.85 | 0.00 | 76 | 1057.0 |
| 20260905030015 | 17 | 292 | 16.1 | 0.0 | 0.00 | 1.85 | 0.00 | 76 | 1057.0 |
| 20260905025901 | 17 | 292 | 8.0 | 0.0 | 0.00 | 1.85 | 0.00 | 75 | 1057.0 |
| 20260905025748 | 17 | 337 | 6.4 | 0.0 | 0.00 | 1.85 | 0.00 | 75 | 1057.0 |
| 20260905025637 | 17 | 270 | 6.4 | 0.0 | 0.00 | 1.85 | 0.00 | 75 | 1057.0 |
| 20260905025532 | 17 | 292 | 16.1 | 0.0 | 0.00 | 1.85 | 0.00 | 75 | 1057.0 |
| 20260905025426 | 17 | 292 | 9.7 | 0.0 | 0.00 | 1.85 | 0.00 | 76 | 1057.0 |
| 20260905025322 | 17 | 270 | 20.9 | 0.0 | 0.00 | 1.85 | 0.00 | 76 | 1056.9 |
| 20260905025215 | 17 | 292 | 6.4 | 0.0 | 0.00 | 1.85 | 0.00 | 75 | 1056.9 |
| 20260905025112 | 17 | 270 | 6.4 | 0.0 | 0.00 | 1.85 | 0.00 | 76 | 1056.9 |
| 20260905025004 | 17 | 225 | 25.7 | 0.0 | 0.00 | 1.85 | 0.00 | 76 | 1056.9 |
| 20260905024843 | 17 | 292 | 14.5 | 0.0 | 0.00 | 1.85 | 0.00 | 77 | 1056.9 |
| 20260905024730 | 17 | 270 | 6.4 | 0.0 | 0.00 | 1.85 | 0.00 | 77 | 1056.9 |
| 20260905024617 | 17 | 337 | 11.3 | 0.0 | 0.00 | 1.85 | 0.00 | 77 | 1057.0 |
| 20260905024456 | 17 | 270 | 3.2 | 0.0 | 0.00 | 1.85 | 0.00 | 76 | 1056.9 |
| 20260905024334 | 17 | 270 | 12.9 | 0.0 | 0.00 | 1.85 | 0.00 | 76 | 1056.9 |
| 20260905024222 | 17 | 247 | 17.7 | 0.0 | 0.00 | 1.85 | 0.00 | 76 | 1056.9 |
| 20260905024117 | 17 | 292 | 11.3 | 0.0 | 0.00 | 1.85 | 0.00 | 76 | 1057.0 |
| 20260905024003 | 17 | 337 | 9.7 | 0.0 | 0.00 | 1.85 | 0.00 | 76 | 1056.9 |
| 20260905023843 | 17 | 247 | 0.0 | 0.0 | 0.00 | 1.85 | 0.00 | 76 | 1056.9 |
| 20260905023738 | 17 | 292 | 9.7 | 0.0 | 0.00 | 1.85 | 0.00 | 76 | 1056.9 |
| 20260905023624 | 17 | 292 | 17.7 | 0.0 | 0.00 | 1.85 | 0.00 | 76 | 1057.0 |
| 20260905023510 | 17 | 270 | 17.7 | 0.0 | 0.00 | 1.85 | 0.00 | 76 | 1057.0 |
| 20260905023350 | 17 | 270 | 1.6 | 0.0 | 0.00 | 1.85 | 0.00 | 76 | 1056.9 |
| 20260905023237 | 17 | 247 | 8.0 | 0.0 | 0.00 | 1.85 | 0.00 | 76 | 1056.9 |
| 20260905023117 | 17 | 292 | 0.0 | 0.0 | 0.00 | 1.85 | 0.00 | 76 | 1056.9 |
| 20260905023004 | 17 | 0 | 6.4 | 0.0 | 0.00 | 1.85 | 0.00 | 76 | 1057.0 |
| 20260905022852 | 17 | 292 | 8.0 | 0.0 | 0.00 | 1.85 | 0.00 | 76 | 1057.0 |
| 20260905022744 | 17 | 315 | 3.2 | 0.0 | 0.00 | 1.85 | 0.00 | 76 | 1057.0 |
| 20260905022631 | 17 | 292 | 22.5 | 0.0 | 0.00 | 1.85 | 0.00 | 76 | 1057.0 |
| 20260905022520 | 17 | 292 | 16.1 | 0.0 | 0.00 | 1.85 | 0.00 | 76 | 1057.1 |
| 20260905022405 | 17 | 315 | 9.7 | 0.0 | 0.00 | 1.85 | 0.00 | 76 | 1057.0 |
| 20260905022252 | 17 | 315 | 4.8 | 0.0 | 0.00 | 1.85 | 0.00 | 75 | 1057.0 |
| 20260905022132 | 17 | 337 | 0.0 | 0.0 | 0.00 | 1.85 | 0.00 | 75 | 1057.0 |
| 20260905022011 | 17 | 247 | 17.7 | 0.0 | 0.00 | 1.85 | 0.00 | 75 | 1056.9 |
| 20260905021858 | 17 | 292 | 9.7 | 0.0 | 0.00 | 1.85 | 0.00 | 74 | 1057.0 |
| 20260905021736 | 17 | 247 | 9.7 | 0.0 | 0.00 | 1.85 | 0.00 | 75 | 1056.9 |
| 20260905021613 | 17 | 0 | 20.9 | 0.0 | 0.00 | 1.85 | 0.00 | 74 | 1056.9 |
| 20260905021452 | 17 | 270 | 19.3 | 0.0 | 0.00 | 1.85 | 0.00 | 74 | 1056.9 |
| 20260905021339 | 17 | 270 | 0.0 | 0.0 | 0.00 | 1.85 | 0.00 | 73 | 1057.0 |
| 20260905021234 | 17 | 315 | 19.3 | 0.0 | 0.00 | 1.85 | 0.00 | 73 | 1056.9 |
| 20260905021122 | 17 | 315 | 19.3 | 0.0 | 0.00 | 1.85 | 0.00 | 73 | 1056.9 |
| 20260905021008 | 17 | 270 | 19.3 | 0.0 | 0.00 | 1.85 | 0.00 | 73 | 1057.0 |
| 20260905020855 | 17 | 315 | 17.7 | 0.0 | 0.00 | 1.85 | 0.00 | 73 | 1057.0 |
| 20260905020751 | 17 | 270 | 25.7 | 0.0 | 0.00 | 1.85 | 0.00 | 73 | 1056.9 |
| 20260905020636 | 17 | 292 | 24.1 | 0.0 | 0.00 | 1.85 | 0.00 | 73 | 1056.9 |
| 20260905020524 | 17 | 270 | 22.5 | 0.0 | 0.00 | 1.85 | 0.00 | 73 | 1056.9 |
| 20260905020418 | 17 | 270 | 1.6 | 0.0 | 0.00 | 1.85 | 0.00 | 73 | 1056.9 |
| 20260905020306 | 17 | 337 | 3.2 | 0.0 | 0.00 | 1.85 | 0.00 | 74 | 1057.0 |
| 20260905015958 | 17 | 315 | 14.5 | 0.0 | 0.00 | 1.85 | 0.00 | 75 | 1057.0 |
| 20260905015845 | 17 | 270 | 24.1 | 0.0 | 0.00 | 1.85 | 0.00 | 74 | 1057.0 |
| 20260905015732 | 17 | 315 | 6.4 | 0.0 | 0.00 | 1.85 | 0.00 | 74 | 1056.9 |
| 20260905015619 | 17 | 315 | 14.5 | 0.0 | 0.00 | 1.85 | 0.00 | 73 | 1056.9 |
| 20260905015506 | 17 | 247 | 22.5 | 0.0 | 0.00 | 1.85 | 0.00 | 74 | 1056.9 |
| 20260905015401 | 17 | 270 | 16.1 | 0.0 | 0.00 | 1.85 | 0.00 | 74 | 1056.8 |
| 20260905015248 | 17 | 292 | 11.3 | 0.0 | 0.00 | 1.85 | 0.00 | 73 | 1056.8 |
| 20260905015142 | 17 | 337 | 17.7 | 0.0 | 0.00 | 1.85 | 0.00 | 73 | 1056.9 |
| 20260905015029 | 17 | 270 | 9.7 | 0.0 | 0.00 | 1.85 | 0.00 | 73 | 1056.7 |
| 20260905014919 | 17 | 315 | 11.3 | 0.0 | 0.00 | 1.85 | 0.00 | 73 | 1056.7 |
| 20260905014811 | 17 | 292 | 9.7 | 0.0 | 0.00 | 1.85 | 0.00 | 73 | 1056.7 |
| 20260905014657 | 17 | 315 | 17.7 | 0.0 | 0.00 | 1.85 | 0.00 | 73 | 1056.7 |
| 20260905014537 | 17 | 22 | 3.2 | 0.0 | 0.00 | 1.85 | 0.00 | 73 | 1056.7 |
| 20260905014432 | 17 | 315 | 0.0 | 0.0 | 0.00 | 1.85 | 0.00 | 72 | 1056.7 |
| 20260905014319 | 17 | 292 | 17.7 | 0.0 | 0.00 | 1.85 | 0.00 | 71 | 1056.7 |
| 20260905014214 | 17 | 337 | 8.0 | 0.0 | 0.00 | 1.85 | 0.00 | 71 | 1056.6 |
| 20260905014101 | 17 | 315 | 19.3 | 0.0 | 0.00 | 1.85 | 0.00 | 71 | 1056.7 |
| 20260905013956 | 17 | 315 | 22.5 | 0.0 | 0.00 | 1.85 | 0.00 | 72 | 1056.7 |
| 20260905013851 | 17 | 315 | 22.5 | 0.0 | 0.00 | 1.85 | 0.00 | 72 | 1056.7 |
| 20260905013738 | 17 | 292 | 11.3 | 0.0 | 0.00 | 1.85 | 0.00 | 72 | 1056.7 |
| 20260905013625 | 17 | 315 | 9.7 | 0.0 | 0.00 | 1.85 | 0.00 | 72 | 1056.6 |
| 20260905013513 | 17 | 315 | 3.2 | 0.0 | 0.00 | 1.85 | 0.00 | 72 | 1056.6 |
| 20260905013406 | 17 | 270 | 20.9 | 0.0 | 0.00 | 1.85 | 0.00 | 73 | 1056.7 |
| 20260905013245 | 17 | 292 | 8.0 | 0.0 | 0.00 | 1.85 | 0.00 | 74 | 1056.5 |
| 20260905013132 | 17 | 292 | 14.5 | 0.0 | 0.00 | 1.85 | 0.00 | 73 | 1056.6 |
| 20260905013027 | 17 | 315 | 0.0 | 0.0 | 0.00 | 1.85 | 0.00 | 73 | 1056.7 |
| 20260905012920 | 17 | 337 | 9.7 | 0.0 | 0.00 | 1.85 | 0.00 | 73 | 1056.6 |
| 20260905012808 | 17 | 315 | 6.4 | 0.0 | 0.00 | 1.85 | 0.00 | 74 | 1056.7 |
| 20260905012655 | 17 | 270 | 0.0 | 0.0 | 0.00 | 1.85 | 0.00 | 74 | 1056.6 |
| 20260905012550 | 17 | 292 | 9.7 | 0.0 | 0.00 | 1.85 | 0.00 | 74 | 1056.6 |
| 20260905012438 | 17 | 292 | 6.4 | 0.0 | 0.00 | 1.85 | 0.00 | 74 | 1056.6 |
| 20260905012331 | 17 | 270 | 17.7 | 0.0 | 0.00 | 1.85 | 0.00 | 74 | 1056.6 |
| 20260905012211 | 17 | 270 | 4.8 | 0.0 | 0.00 | 1.85 | 0.00 | 74 | 1056.7 |
| 20260905012106 | 17 | 270 | 24.1 | 0.0 | 0.00 | 1.85 | 0.00 | 73 | 1056.6 |
| 20260905011953 | 17 | 0 | 0.0 | 0.0 | 0.00 | 1.85 | 0.00 | 73 | 1056.5 |
| 20260905011847 | 17 | 0 | 11.3 | 0.0 | 0.00 | 1.85 | 0.00 | 74 | 1056.6 |
| 20260905011735 | 17 | 315 | 9.7 | 0.0 | 0.00 | 1.85 | 0.00 | 74 | 1056.6 |
| 20260905011624 | 17 | 315 | 6.4 | 0.0 | 0.00 | 1.85 | 0.00 | 74 | 1056.4 |
| 20260905011509 | 17 | 292 | 9.7 | 0.0 | 0.00 | 1.85 | 0.00 | 73 | 1056.5 |
| 20260905011355 | 17 | 337 | 16.1 | 0.0 | 0.00 | 1.85 | 0.00 | 73 | 1056.5 |
| 20260905011242 | 17 | 270 | 12.9 | 0.0 | 0.00 | 1.85 | 0.00 | 73 | 1056.5 |
| 20260905011121 | 17 | 315 | 3.2 | 0.0 | 0.00 | 1.85 | 0.00 | 74 | 1056.5 |
| 20260905011007 | 17 | 292 | 20.9 | 0.0 | 0.00 | 1.85 | 0.00 | 74 | 1056.6 |
| 20260905010840 | 17 | 292 | 9.7 | 0.0 | 0.00 | 1.85 | 0.00 | 74 | 1056.6 |
| 20260905010725 | 17 | 315 | 8.0 | 0.0 | 0.00 | 1.85 | 0.00 | 73 | 1056.6 |
| 20260905010614 | 17 | 315 | 17.7 | 0.0 | 0.00 | 1.85 | 0.00 | 73 | 1056.5 |
| 20260905010507 | 17 | 270 | 16.1 | 0.0 | 0.00 | 1.85 | 0.00 | 73 | 1056.7 |
| 20260905010349 | 17 | 270 | 17.7 | 0.0 | 0.00 | 1.85 | 0.00 | 73 | 1056.5 |
| 20260905010243 | 17 | 315 | 19.3 | 0.0 | 0.00 | 1.85 | 0.00 | 73 | 1056.4 |
| 20260905010136 | 17 | 292 | 16.1 | 0.0 | 0.00 | 1.85 | 0.00 | 74 | 1056.5 |
| 20260905005942 | 17 | 292 | 17.7 | 0.0 | 0.00 | 1.85 | 0.00 | 74 | 1056.6 |
| 20260905005821 | 17 | 292 | 14.5 | 0.0 | 0.00 | 1.85 | 0.00 | 74 | 1056.4 |
| 20260905005707 | 17 | 292 | 12.9 | 0.0 | 0.00 | 1.85 | 0.00 | 73 | 1056.5 |
| 20260905005539 | 17 | 315 | 16.1 | 0.0 | 0.00 | 1.85 | 0.00 | 73 | 1056.5 |
| 20260905005417 | 17 | 270 | 20.9 | 0.0 | 0.00 | 1.85 | 0.00 | 73 | 1056.6 |
| 20260905005259 | 17 | 292 | 14.5 | 0.0 | 0.00 | 1.85 | 0.00 | 73 | 1056.5 |
| 20260905005151 | 17 | 315 | 9.7 | 0.0 | 0.00 | 1.85 | 0.00 | 74 | 1056.4 |
| 20260905005037 | 17 | 315 | 22.5 | 0.0 | 0.00 | 1.85 | 0.00 | 75 | 1056.5 |
| 20260905004918 | 17 | 247 | 11.3 | 0.0 | 0.00 | 1.85 | 0.00 | 75 | 1056.4 |
| 20260905004814 | 17 | 315 | 9.7 | 0.0 | 0.00 | 1.85 | 0.00 | 75 | 1056.4 |
| 20260905004658 | 17 | 247 | 8.0 | 0.0 | 0.00 | 1.85 | 0.00 | 75 | 1056.3 |
| 20260905004548 | 17 | 337 | 11.3 | 0.0 | 0.00 | 1.85 | 0.00 | 74 | 1056.4 |
| 20260905004441 | 17 | 0 | 4.8 | 0.0 | 0.00 | 1.85 | 0.00 | 74 | 1056.4 |
| 20260905004335 | 17 | 315 | 19.3 | 0.0 | 0.00 | 1.85 | 0.00 | 74 | 1056.5 |
| 20260905004206 | 17 | 292 | 19.3 | 0.0 | 0.00 | 1.85 | 0.00 | 75 | 1056.4 |
| 20260905004045 | 17 | 315 | 12.9 | 0.0 | 0.00 | 1.85 | 0.00 | 75 | 1056.3 |
| 20260905003926 | 17 | 247 | 6.4 | 0.0 | 0.00 | 1.85 | 0.00 | 75 | 1056.3 |
| 20260905003821 | 17 | 315 | 4.8 | 0.0 | 0.00 | 1.85 | 0.00 | 75 | 1056.6 |
| 20260905003713 | 17 | 337 | 3.2 | 0.0 | 0.00 | 1.85 | 0.00 | 76 | 1056.4 |
| 20260905003600 | 17 | 292 | 0.0 | 0.0 | 0.00 | 1.85 | 0.00 | 75 | 1056.4 |
| 20260905003439 | 17 | 270 | 3.2 | 0.0 | 0.00 | 1.85 | 0.00 | 75 | 1056.4 |
| 20260905003302 | 17 | 292 | 17.7 | 0.0 | 0.00 | 1.85 | 0.00 | 75 | 1056.5 |
| 20260905003141 | 17 | 315 | 4.8 | 0.0 | 0.00 | 1.85 | 0.00 | 75 | 1056.4 |
| 20260905003035 | 17 | 270 | 6.4 | 0.0 | 0.00 | 1.85 | 0.00 | 75 | 1056.4 |
| 20260905002906 | 17 | 292 | 8.0 | 0.0 | 0.00 | 1.85 | 0.00 | 75 | 1056.3 |
| 20260905002753 | 17 | 247 | 12.9 | 0.0 | 0.00 | 1.85 | 0.00 | 75 | 1056.4 |
| 20260905002641 | 17 | 337 | 0.0 | 0.0 | 0.00 | 1.85 | 0.00 | 75 | 1056.5 |
| 20260905002526 | 17 | 315 | 11.3 | 0.0 | 0.00 | 1.85 | 0.00 | 75 | 1056.4 |
| 20260905002359 | 17 | 315 | 8.0 | 0.0 | 0.00 | 1.85 | 0.00 | 75 | 1056.4 |
| 20260905002245 | 17 | 292 | 6.4 | 0.0 | 0.00 | 1.85 | 0.00 | 75 | 1056.5 |
| 20260905002140 | 17 | 337 | 9.7 | 0.0 | 0.00 | 1.85 | 0.00 | 75 | 1056.5 |
| 20260905002026 | 17 | 315 | 22.5 | 0.0 | 0.00 | 1.85 | 0.00 | 75 | 1056.4 |
| 20260905001913 | 17 | 292 | 25.7 | 0.0 | 0.00 | 1.85 | 0.00 | 75 | 1056.5 |
| 20260905001802 | 17 | 270 | 12.9 | 0.0 | 0.00 | 1.85 | 0.00 | 75 | 1056.5 |
| 20260905001654 | 17 | 292 | 8.0 | 0.0 | 0.00 | 1.85 | 0.00 | 74 | 1056.4 |
| 20260905001534 | 17 | 270 | 19.3 | 0.0 | 0.00 | 1.85 | 0.00 | 74 | 1056.4 |
| 20260905001420 | 17 | 337 | 9.7 | 0.0 | 0.00 | 1.85 | 0.00 | 74 | 1056.5 |
| 20260905001259 | 17 | 0 | 9.7 | 0.0 | 0.00 | 1.85 | 0.00 | 74 | 1056.5 |
| 20260905001129 | 17 | 315 | 4.8 | 0.0 | 0.00 | 1.85 | 0.00 | 75 | 1056.5 |
| 20260905001010 | 17 | 292 | 14.5 | 0.0 | 0.00 | 1.85 | 0.00 | 74 | 1056.5 |
| 20260905000906 | 17 | 0 | 6.4 | 0.0 | 0.00 | 1.85 | 0.00 | 74 | 1056.5 |
| 20260905000758 | 17 | 315 | 9.7 | 0.0 | 0.00 | 1.85 | 0.00 | 75 | 1056.4 |
| 20260905000645 | 17 | 315 | 8.0 | 0.0 | 0.00 | 1.85 | 0.00 | 74 | 1056.5 |
| 20260905000534 | 17 | 292 | 14.5 | 0.0 | 0.00 | 1.85 | 0.00 | 75 | 1056.4 |
| 20260905000427 | 17 | 315 | 17.7 | 0.0 | 0.00 | 1.85 | 0.00 | 75 | 1056.4 |
| 20260905000306 | 17 | 270 | 8.0 | 0.0 | 0.00 | 1.85 | 0.00 | 75 | 1056.4 |
| 20260905000136 | 17 | 292 | 16.1 | 0.0 | 0.00 | 1.85 | 0.00 | 75 | 1056.4 |
| 20260905000015 | 17 | 315 | 14.5 | 0.0 | 0.00 | 1.85 | 0.00 | 75 | 1056.4 |
| 20260904235838 | 17 | 315 | 0.0 | 0.0 | 0.00 | 1.85 | 0.00 | 75 | 1056.4 |
| 20260904235725 | 17 | 315 | 9.7 | 0.0 | 0.00 | 1.85 | 0.00 | 75 | 1056.3 |
| 20260904235606 | 17 | 247 | 24.1 | 0.0 | 0.00 | 1.85 | 0.00 | 75 | 1056.4 |
| 20260904235458 | 17 | 315 | 12.9 | 0.0 | 0.00 | 1.85 | 0.00 | 75 | 1056.4 |
| 20260904235346 | 17 | 247 | 16.1 | 0.0 | 0.00 | 1.85 | 0.00 | 75 | 1056.5 |
| 20260904235240 | 17 | 247 | 8.0 | 0.0 | 0.00 | 1.85 | 0.00 | 75 | 1056.4 |
| 20260904235113 | 17 | 292 | 0.0 | 0.0 | 0.00 | 1.85 | 0.00 | 75 | 1056.5 |
| 20260904234958 | 17 | 225 | 0.0 | 0.0 | 0.00 | 1.85 | 0.00 | 75 | 1056.3 |
| 20260904234837 | 17 | 292 | 17.7 | 0.0 | 0.00 | 1.85 | 0.00 | 75 | 1056.4 |
| 20260904234723 | 17 | 270 | 4.8 | 0.0 | 0.00 | 1.85 | 0.00 | 74 | 1056.5 |
| 20260904234610 | 17 | 292 | 3.2 | 0.0 | 0.00 | 1.85 | 0.00 | 74 | 1056.4 |
| 20260904234450 | 17 | 337 | 19.3 | 0.0 | 0.00 | 1.85 | 0.00 | 73 | 1056.5 |
| 20260904234346 | 17 | 0 | 11.3 | 0.0 | 0.00 | 1.85 | 0.00 | 73 | 1056.4 |
| 20260904234231 | 17 | 337 | 3.2 | 0.0 | 0.00 | 1.85 | 0.00 | 72 | 1056.4 |
| 20260904234118 | 17 | 270 | 17.7 | 0.0 | 0.00 | 1.85 | 0.00 | 72 | 1056.4 |
| 20260904234005 | 17 | 270 | 9.7 | 0.0 | 0.00 | 1.85 | 0.00 | 72 | 1056.4 |
| 20260904233853 | 17 | 337 | 9.7 | 0.0 | 0.00 | 1.85 | 0.00 | 72 | 1056.4 |
| 20260904233739 | 17 | 315 | 0.0 | 0.0 | 0.00 | 1.85 | 0.00 | 72 | 1056.4 |
| 20260904233617 | 17 | 270 | 14.5 | 0.0 | 0.00 | 1.85 | 0.00 | 73 | 1056.4 |
| 20260904233504 | 17 | 315 | 8.0 | 0.0 | 0.00 | 1.85 | 0.00 | 73 | 1056.4 |
| 20260904233344 | 17 | 337 | 4.8 | 0.0 | 0.00 | 1.85 | 0.00 | 72 | 1056.3 |
| 20260904233222 | 17 | 292 | 11.3 | 0.0 | 0.00 | 1.85 | 0.00 | 72 | 1056.2 |
| 20260904233118 | 17 | 315 | 16.1 | 0.0 | 0.00 | 1.85 | 0.00 | 72 | 1056.3 |
| 20260904233012 | 17 | 337 | 8.0 | 0.0 | 0.00 | 1.85 | 0.00 | 73 | 1056.3 |
| 20260904232909 | 17 | 315 | 11.3 | 0.0 | 0.00 | 1.85 | 0.00 | 73 | 1056.3 |
| 20260904232802 | 17 | 292 | 4.8 | 0.0 | 0.00 | 1.85 | 0.00 | 73 | 1056.3 |
| 20260904232649 | 17 | 292 | 30.6 | 0.0 | 0.00 | 1.85 | 0.00 | 74 | 1056.4 |
| 20260904232536 | 17 | 337 | 19.3 | 0.0 | 0.00 | 1.85 | 0.00 | 75 | 1056.2 |
| 20260904232430 | 17 | 315 | 11.3 | 0.0 | 0.00 | 1.85 | 0.00 | 75 | 1056.2 |
| 20260904232320 | 17 | 315 | 14.5 | 0.0 | 0.00 | 1.85 | 0.00 | 75 | 1056.3 |
| 20260904232211 | 17 | 292 | 9.7 | 0.0 | 0.00 | 1.85 | 0.00 | 75 | 1056.2 |
| 20260904232052 | 17 | 337 | 11.3 | 0.0 | 0.00 | 1.85 | 0.00 | 75 | 1056.3 |
| 20260904231938 | 17 | 315 | 9.7 | 0.0 | 0.00 | 1.85 | 0.00 | 75 | 1056.4 |
| 20260904231833 | 17 | 315 | 8.0 | 0.0 | 0.00 | 1.85 | 0.00 | 75 | 1056.3 |
| 20260904231721 | 17 | 270 | 0.0 | 0.0 | 0.00 | 1.85 | 0.00 | 75 | 1056.3 |
| 20260904231614 | 17 | 315 | 0.0 | 0.0 | 0.00 | 1.85 | 0.00 | 75 | 1056.4 |
| 20260904231455 | 17 | 315 | 24.1 | 0.0 | 0.00 | 1.85 | 0.00 | 75 | 1056.3 |
| 20260904231347 | 17 | 292 | 20.9 | 0.0 | 0.00 | 1.85 | 0.00 | 75 | 1056.3 |
| 20260904231227 | 17 | 270 | 9.7 | 0.0 | 0.00 | 1.85 | 0.00 | 75 | 1056.2 |
| 20260904231058 | 17 | 292 | 12.9 | 0.0 | 0.00 | 1.85 | 0.00 | 75 | 1056.3 |
| 20260904230954 | 17 | 315 | 24.1 | 0.0 | 0.00 | 1.85 | 0.00 | 74 | 1056.2 |
| 20260904230848 | 17 | 292 | 12.9 | 0.0 | 0.00 | 1.85 | 0.00 | 74 | 1056.2 |
| 20260904230743 | 17 | 292 | 11.3 | 0.0 | 0.00 | 1.85 | 0.00 | 74 | 1056.2 |
| 20260904230621 | 17 | 337 | 0.0 | 0.0 | 0.00 | 1.85 | 0.00 | 74 | 1056.2 |
| 20260904230501 | 17 | 337 | 14.5 | 0.0 | 0.00 | 1.85 | 0.00 | 74 | 1056.2 |
| 20260904230355 | 17 | 292 | 6.4 | 0.0 | 0.00 | 1.85 | 0.00 | 74 | 1056.2 |
| 20260904230234 | 17 | 202 | 11.3 | 0.0 | 0.00 | 1.85 | 0.00 | 74 | 1056.2 |
| 20260904230057 | 17 | 292 | 33.8 | 0.0 | 0.00 | 1.85 | 0.00 | 74 | 1056.1 |
| 20260904225945 | 17 | 22 | 0.0 | 0.0 | 0.00 | 1.85 | 0.00 | 74 | 1056.2 |
| 20260904225838 | 17 | 270 | 0.0 | 0.0 | 0.00 | 1.85 | 0.00 | 74 | 1056.2 |
| 20260904225726 | 17 | 315 | 1.6 | 0.0 | 0.00 | 1.85 | 0.00 | 74 | 1056.3 |
| 20260904225621 | 17 | 337 | 8.0 | 0.0 | 0.00 | 1.85 | 0.00 | 74 | 1056.2 |
| 20260904225507 | 17 | 270 | 22.5 | 0.0 | 0.00 | 1.85 | 0.00 | 74 | 1056.1 |
| 20260904225338 | 17 | 315 | 16.1 | 0.0 | 0.00 | 1.85 | 0.00 | 73 | 1056.2 |
| 20260904225217 | 17 | 292 | 12.9 | 0.0 | 0.00 | 1.85 | 0.00 | 73 | 1056.3 |
| 20260904225106 | 17 | 247 | 6.4 | 0.0 | 0.00 | 1.85 | 0.00 | 73 | 1056.2 |
| 20260904224958 | 17 | 337 | 12.9 | 0.0 | 0.00 | 1.85 | 0.00 | 73 | 1056.2 |
| 20260904224845 | 17 | 292 | 25.7 | 0.0 | 0.00 | 1.85 | 0.00 | 73 | 1056.2 |
| 20260904224723 | 17 | 292 | 16.1 | 0.0 | 0.00 | 1.85 | 0.00 | 73 | 1056.1 |
| 20260904224603 | 17 | 45 | 6.4 | 0.0 | 0.00 | 1.85 | 0.00 | 73 | 1056.2 |
| 20260904224457 | 17 | 315 | 6.4 | 0.0 | 0.00 | 1.85 | 0.00 | 73 | 1056.1 |
| 20260904224347 | 17 | 292 | 12.9 | 0.0 | 0.00 | 1.85 | 0.00 | 73 | 1056.1 |
| 20260904224241 | 17 | 292 | 25.7 | 0.0 | 0.00 | 1.85 | 0.00 | 72 | 1056.1 |
| 20260904224125 | 17 | 315 | 9.7 | 0.0 | 0.00 | 1.85 | 0.00 | 72 | 1056.1 |
| 20260904224005 | 17 | 315 | 14.5 | 0.0 | 0.00 | 1.85 | 0.00 | 72 | 1056.1 |
| 20260904223900 | 17 | 292 | 17.7 | 0.0 | 0.00 | 1.85 | 0.00 | 72 | 1056.0 |
| 20260904223748 | 17 | 270 | 8.0 | 0.0 | 0.00 | 1.85 | 0.00 | 72 | 1056.1 |
| 20260904223641 | 17 | 292 | 4.8 | 0.0 | 0.00 | 1.85 | 0.00 | 72 | 1056.1 |
| 20260904223520 | 17 | 315 | 19.3 | 0.0 | 0.00 | 1.85 | 0.00 | 73 | 1056.0 |
| 20260904223407 | 17 | 315 | 12.9 | 0.0 | 0.00 | 1.85 | 0.00 | 73 | 1056.0 |
| 20260904223246 | 17 | 202 | 0.0 | 0.0 | 0.00 | 1.85 | 0.00 | 73 | 1056.0 |
| 20260904223124 | 17 | 292 | 9.7 | 0.0 | 0.00 | 1.85 | 0.00 | 73 | 1056.1 |
| 20260904222958 | 17 | 270 | 3.2 | 0.0 | 0.00 | 1.85 | 0.00 | 73 | 1056.0 |
| 20260904222850 | 17 | 315 | 17.7 | 0.0 | 0.00 | 1.85 | 0.00 | 73 | 1056.0 |
| 20260904222729 | 17 | 225 | 0.0 | 0.0 | 0.00 | 1.85 | 0.00 | 72 | 1056.0 |
| 20260904222610 | 17 | 315 | 4.8 | 0.0 | 0.00 | 1.85 | 0.00 | 72 | 1056.0 |
| 20260904222502 | 17 | 270 | 19.3 | 0.0 | 0.00 | 1.85 | 0.00 | 72 | 1055.9 |
| 20260904222349 | 17 | 315 | 17.7 | 0.0 | 0.00 | 1.85 | 0.00 | 72 | 1056.0 |
| 20260904222242 | 17 | 315 | 9.7 | 0.0 | 0.00 | 1.85 | 0.00 | 73 | 1055.9 |
| 20260904222113 | 17 | 337 | 0.0 | 0.0 | 0.00 | 1.85 | 0.00 | 73 | 1055.9 |
| 20260904222000 | 17 | 337 | 16.1 | 0.0 | 0.00 | 1.85 | 0.00 | 74 | 1055.9 |
| 20260904221838 | 17 | 292 | 8.0 | 0.0 | 0.00 | 1.85 | 0.00 | 73 | 1055.9 |
| 20260904221717 | 17 | 315 | 9.7 | 0.0 | 0.00 | 1.85 | 0.00 | 73 | 1055.9 |
| 20260904221606 | 17 | 315 | 16.1 | 0.0 | 0.00 | 1.85 | 0.00 | 73 | 1055.8 |
| 20260904221451 | 17 | 292 | 25.7 | 0.0 | 0.00 | 1.85 | 0.00 | 73 | 1055.9 |
| 20260904221330 | 17 | 247 | 9.7 | 0.0 | 0.00 | 1.85 | 0.00 | 73 | 1055.9 |
| 20260904221201 | 17 | 315 | 19.3 | 0.0 | 0.00 | 1.85 | 0.00 | 73 | 1055.8 |
| 20260904221048 | 17 | 22 | 0.0 | 0.0 | 0.00 | 1.85 | 0.00 | 73 | 1055.9 |
| 20260904220934 | 17 | 337 | 24.1 | 0.0 | 0.00 | 1.85 | 0.00 | 73 | 1056.0 |
| 20260904220815 | 17 | 315 | 16.1 | 0.0 | 0.00 | 1.85 | 0.00 | 73 | 1055.8 |
| 20260904220707 | 17 | 315 | 37.0 | 0.0 | 0.00 | 1.85 | 0.00 | 73 | 1055.9 |
| 20260904220555 | 17 | 270 | 12.9 | 0.0 | 0.00 | 1.85 | 0.00 | 73 | 1055.9 |
| 20260904220444 | 17 | 270 | 24.1 | 0.0 | 0.00 | 1.85 | 0.00 | 73 | 1055.9 |
| 20260904220338 | 17 | 202 | 22.5 | 0.0 | 0.00 | 1.85 | 0.00 | 73 | 1055.9 |
| 20260904220232 | 17 | 270 | 9.7 | 0.0 | 0.00 | 1.85 | 0.00 | 73 | 1055.9 |
| 20260904220128 | 17 | 292 | 8.0 | 0.0 | 0.00 | 1.85 | 0.00 | 74 | 1056.0 |
| 20260904220021 | 17 | 67 | 12.9 | 0.0 | 0.00 | 1.85 | 0.00 | 74 | 1055.9 |
| 20260904215900 | 17 | 270 | 9.7 | 0.0 | 0.00 | 1.85 | 0.00 | 75 | 1055.9 |
| 20260904215747 | 17 | 270 | 11.3 | 0.0 | 0.00 | 1.85 | 0.00 | 75 | 1055.8 |
| 20260904215642 | 17 | 337 | 14.5 | 0.0 | 0.00 | 1.85 | 0.00 | 75 | 1055.9 |
| 20260904215513 | 17 | 315 | 19.3 | 0.0 | 0.00 | 1.85 | 0.00 | 75 | 1055.8 |
| 20260904215351 | 17 | 315 | 16.1 | 0.0 | 0.00 | 1.85 | 0.00 | 75 | 1055.9 |
| 20260904215231 | 17 | 292 | 6.4 | 0.0 | 0.00 | 1.85 | 0.00 | 74 | 1055.9 |
| 20260904215118 | 17 | 315 | 16.1 | 0.0 | 0.00 | 1.85 | 0.00 | 73 | 1055.8 |
| 20260904215012 | 17 | 315 | 9.7 | 0.0 | 0.00 | 1.85 | 0.00 | 73 | 1055.9 |
| 20260904214907 | 17 | 315 | 0.0 | 0.0 | 0.00 | 1.85 | 0.00 | 73 | 1055.8 |
| 20260904214738 | 17 | 315 | 9.7 | 0.0 | 0.00 | 1.85 | 0.00 | 73 | 1055.8 |
| 20260904214624 | 17 | 315 | 14.5 | 0.0 | 0.00 | 1.85 | 0.00 | 73 | 1055.8 |
| 20260904214511 | 17 | 292 | 9.7 | 0.0 | 0.00 | 1.85 | 0.00 | 73 | 1055.8 |
| 20260904214400 | 17 | 315 | 14.5 | 0.0 | 0.00 | 1.85 | 0.00 | 73 | 1055.8 |
| 20260904214253 | 17 | 292 | 19.3 | 0.0 | 0.00 | 1.85 | 0.00 | 73 | 1055.8 |
| 20260904214133 | 17 | 292 | 20.9 | 0.0 | 0.00 | 1.85 | 0.00 | 73 | 1055.7 |
| 20260904214027 | 17 | 315 | 9.7 | 0.0 | 0.00 | 1.85 | 0.00 | 73 | 1055.7 |
| 20260904213859 | 17 | 292 | 16.1 | 0.0 | 0.00 | 1.85 | 0.00 | 73 | 1055.7 |
| 20260904213752 | 17 | 315 | 12.9 | 0.0 | 0.00 | 1.85 | 0.00 | 73 | 1055.8 |
| 20260904213637 | 17 | 270 | 3.2 | 0.0 | 0.00 | 1.85 | 0.00 | 73 | 1055.7 |
| 20260904213518 | 17 | 315 | 12.9 | 0.0 | 0.00 | 1.85 | 0.00 | 73 | 1055.7 |
| 20260904213413 | 17 | 270 | 12.9 | 0.0 | 0.00 | 1.85 | 0.00 | 73 | 1055.6 |
| 20260904213306 | 17 | 292 | 24.1 | 0.0 | 0.00 | 1.85 | 0.00 | 73 | 1055.7 |
| 20260904213153 | 17 | 292 | 14.5 | 0.0 | 0.00 | 1.85 | 0.00 | 73 | 1055.7 |
| 20260904213040 | 17 | 247 | 11.3 | 0.0 | 0.00 | 1.85 | 0.00 | 73 | 1055.7 |
| 20260904212935 | 17 | 315 | 8.0 | 0.0 | 0.00 | 1.85 | 0.00 | 74 | 1055.7 |
| 20260904212823 | 17 | 292 | 16.1 | 0.0 | 0.00 | 1.85 | 0.00 | 74 | 1055.7 |
| 20260904212716 | 17 | 292 | 9.7 | 0.0 | 0.00 | 1.85 | 0.00 | 74 | 1055.7 |
| 20260904212603 | 17 | 292 | 12.9 | 0.0 | 0.00 | 1.85 | 0.00 | 75 | 1055.6 |
| 20260904212450 | 17 | 315 | 32.2 | 0.0 | 0.00 | 1.85 | 0.00 | 75 | 1055.7 |
| 20260904212329 | 17 | 315 | 17.7 | 0.0 | 0.00 | 1.85 | 0.00 | 76 | 1055.7 |
| 20260904212217 | 17 | 292 | 12.9 | 0.0 | 0.00 | 1.85 | 0.00 | 76 | 1055.6 |
| 20260904212114 | 17 | 292 | 12.9 | 0.0 | 0.00 | 1.85 | 0.00 | 75 | 1055.7 |
| 20260904212008 | 17 | 0 | 17.7 | 0.0 | 0.00 | 1.85 | 0.00 | 75 | 1055.6 |
| 20260904211855 | 17 | 315 | 9.7 | 0.0 | 0.00 | 1.85 | 0.00 | 75 | 1055.7 |
| 20260904211749 | 17 | 315 | 9.7 | 0.0 | 0.00 | 1.85 | 0.00 | 75 | 1055.7 |
| 20260904211643 | 17 | 0 | 4.8 | 0.0 | 0.00 | 1.85 | 0.00 | 75 | 1055.7 |
| 20260904211530 | 17 | 315 | 0.0 | 0.0 | 0.00 | 1.85 | 0.00 | 74 | 1055.6 |
| 20260904211416 | 17 | 337 | 25.7 | 0.0 | 0.00 | 1.85 | 0.00 | 74 | 1055.5 |
| 20260904211255 | 17 | 112 | 0.0 | 0.0 | 0.00 | 1.85 | 0.00 | 73 | 1055.6 |
| 20260904211144 | 17 | 292 | 14.5 | 0.0 | 0.00 | 1.85 | 0.00 | 73 | 1055.5 |
| 20260904211037 | 17 | 0 | 6.4 | 0.0 | 0.00 | 1.85 | 0.00 | 73 | 1055.6 |
| 20260904210911 | 17 | 270 | 12.9 | 0.0 | 0.00 | 1.85 | 0.00 | 73 | 1055.6 |
| 20260904210804 | 17 | 0 | 6.4 | 0.0 | 0.00 | 1.85 | 0.00 | 73 | 1055.5 |
| 20260904210650 | 17 | 315 | 20.9 | 0.0 | 0.00 | 1.85 | 0.00 | 73 | 1055.6 |
| 20260904210531 | 17 | 315 | 9.7 | 0.0 | 0.00 | 1.85 | 0.00 | 73 | 1055.5 |
| 20260904210425 | 17 | 22 | 6.4 | 0.0 | 0.00 | 1.85 | 0.00 | 73 | 1055.5 |
| 20260904210310 | 17 | 337 | 17.7 | 0.0 | 0.00 | 1.85 | 0.00 | 74 | 1055.5 |
| 20260904210158 | 17 | 292 | 16.1 | 0.0 | 0.00 | 1.85 | 0.00 | 74 | 1055.5 |
| 20260904210055 | 17 | 0 | 6.4 | 0.0 | 0.00 | 1.85 | 0.00 | 74 | 1055.5 |
| 20260904205948 | 17 | 292 | 12.9 | 0.0 | 0.00 | 1.85 | 0.00 | 74 | 1055.5 |
| 20260904205842 | 17 | 292 | 12.9 | 0.0 | 0.00 | 1.85 | 0.00 | 74 | 1055.5 |
| 20260904205724 | 17 | 337 | 3.2 | 0.0 | 0.00 | 1.85 | 0.00 | 74 | 1055.4 |
| 20260904205608 | 17 | 270 | 6.4 | 0.0 | 0.00 | 1.85 | 0.00 | 74 | 1055.4 |
| 20260904205455 | 17 | 270 | 16.1 | 0.0 | 0.00 | 1.85 | 0.00 | 75 | 1055.5 |
| 20260904205342 | 17 | 270 | 14.5 | 0.0 | 0.00 | 1.85 | 0.00 | 75 | 1055.5 |
| 20260904205229 | 17 | 270 | 14.5 | 0.0 | 0.00 | 1.85 | 0.00 | 76 | 1055.5 |
| 20260904205114 | 17 | 292 | 12.9 | 0.0 | 0.00 | 1.85 | 0.00 | 76 | 1055.5 |
| 20260904205005 | 17 | 315 | 8.0 | 0.0 | 0.00 | 1.85 | 0.00 | 76 | 1055.5 |
| 20260904204849 | 17 | 270 | 19.3 | 0.0 | 0.00 | 1.85 | 0.00 | 76 | 1055.5 |
| 20260904204737 | 17 | 292 | 19.3 | 0.0 | 0.00 | 1.85 | 0.00 | 76 | 1055.5 |
| 20260904204623 | 17 | 292 | 11.3 | 0.0 | 0.00 | 1.85 | 0.00 | 76 | 1055.5 |
| 20260904204512 | 17 | 292 | 9.7 | 0.0 | 0.00 | 1.85 | 0.00 | 76 | 1055.5 |
| 20260904204406 | 17 | 315 | 12.9 | 0.0 | 0.00 | 1.85 | 0.00 | 76 | 1055.5 |
| 20260904204300 | 17 | 202 | 0.0 | 0.0 | 0.00 | 1.85 | 0.00 | 76 | 1055.5 |
| 20260904204155 | 17 | 292 | 16.1 | 0.0 | 0.00 | 1.85 | 0.00 | 76 | 1055.5 |
| 20260904204034 | 17 | 292 | 12.9 | 0.0 | 0.00 | 1.85 | 0.00 | 76 | 1055.4 |
| 20260904203921 | 17 | 292 | 12.9 | 0.0 | 0.00 | 1.85 | 0.00 | 76 | 1055.4 |
| 20260904203808 | 17 | 292 | 9.7 | 0.0 | 0.00 | 1.85 | 0.00 | 76 | 1055.4 |
| 20260904203654 | 17 | 247 | 19.3 | 0.0 | 0.00 | 1.85 | 0.00 | 76 | 1055.3 |
| 20260904203533 | 17 | 270 | 4.8 | 0.0 | 0.00 | 1.85 | 0.00 | 76 | 1055.3 |
| 20260904203420 | 17 | 292 | 24.1 | 0.0 | 0.00 | 1.85 | 0.00 | 75 | 1055.2 |
| 20260904203301 | 17 | 315 | 12.9 | 0.0 | 0.00 | 1.85 | 0.00 | 75 | 1055.3 |
| 20260904203155 | 17 | 292 | 12.9 | 0.0 | 0.00 | 1.85 | 0.00 | 75 | 1055.2 |
| 20260904203049 | 18 | 292 | 8.0 | 0.0 | 0.00 | 1.85 | 0.00 | 75 | 1055.2 |
| 20260904202938 | 18 | 315 | 14.5 | 0.0 | 0.00 | 1.85 | 0.00 | 74 | 1055.2 |
| 20260904202831 | 18 | 270 | 4.8 | 0.0 | 0.00 | 1.85 | 0.00 | 74 | 1055.2 |
| 20260904202717 | 18 | 292 | 12.9 | 0.0 | 0.00 | 1.85 | 0.00 | 74 | 1055.3 |
| 20260904202607 | 18 | 225 | 9.7 | 0.0 | 0.00 | 1.85 | 0.00 | 73 | 1055.3 |
| 20260904202459 | 18 | 22 | 9.7 | 0.0 | 0.00 | 1.85 | 0.00 | 74 | 1055.2 |
| 20260904202340 | 18 | 270 | 19.3 | 0.0 | 0.00 | 1.85 | 0.00 | 74 | 1055.2 |
| 20260904202234 | 18 | 292 | 25.7 | 0.0 | 0.00 | 1.85 | 0.00 | 74 | 1055.1 |
| 20260904202121 | 18 | 247 | 12.9 | 0.0 | 0.00 | 1.85 | 0.00 | 74 | 1055.2 |
| 20260904202015 | 17 | 270 | 16.1 | 0.0 | 0.00 | 1.85 | 0.00 | 74 | 1055.2 |
| 20260904201910 | 17 | 292 | 11.3 | 0.0 | 0.00 | 1.85 | 0.00 | 74 | 1055.3 |
| 20260904201750 | 17 | 292 | 20.9 | 0.0 | 0.00 | 1.85 | 0.00 | 75 | 1055.3 |
| 20260904201645 | 17 | 292 | 12.9 | 0.0 | 0.00 | 1.85 | 0.00 | 75 | 1055.3 |
| 20260904201540 | 17 | 315 | 0.0 | 0.0 | 0.00 | 1.85 | 0.00 | 75 | 1055.2 |
| 20260904201426 | 17 | 292 | 8.0 | 0.0 | 0.00 | 1.85 | 0.00 | 75 | 1055.2 |
| 20260904201312 | 17 | 247 | 24.1 | 0.0 | 0.00 | 1.85 | 0.00 | 75 | 1055.3 |
| 20260904201152 | 17 | 315 | 9.7 | 0.0 | 0.00 | 1.85 | 0.00 | 75 | 1055.2 |
| 20260904201046 | 17 | 270 | 12.9 | 0.0 | 0.00 | 1.85 | 0.00 | 75 | 1055.2 |
| 20260904200926 | 18 | 292 | 9.7 | 0.0 | 0.00 | 1.85 | 0.00 | 75 | 1055.1 |
| 20260904200821 | 17 | 292 | 19.3 | 0.0 | 0.00 | 1.85 | 0.00 | 76 | 1055.1 |
| 20260904200716 | 18 | 292 | 19.3 | 0.0 | 0.00 | 1.85 | 0.00 | 77 | 1055.2 |
| 20260904200610 | 18 | 270 | 14.5 | 0.0 | 0.00 | 1.85 | 0.00 | 76 | 1055.0 |
| 20260904200441 | 18 | 315 | 4.8 | 0.0 | 0.00 | 1.85 | 0.00 | 76 | 1055.1 |
| 20260904200327 | 18 | 337 | 12.9 | 0.0 | 0.00 | 1.85 | 0.00 | 76 | 1055.1 |
| 20260904200217 | 18 | 292 | 24.1 | 0.0 | 0.00 | 1.85 | 0.00 | 76 | 1055.0 |
| 20260904200103 | 18 | 0 | 12.9 | 0.0 | 0.00 | 1.85 | 0.00 | 75 | 1055.0 |
| 20260904195957 | 18 | 270 | 4.8 | 0.0 | 0.00 | 1.85 | 0.00 | 75 | 1055.0 |
| 20260904195846 | 18 | 337 | 20.9 | 0.0 | 0.00 | 1.85 | 0.00 | 75 | 1055.0 |
| 20260904195739 | 18 | 315 | 11.3 | 0.0 | 0.00 | 1.85 | 0.00 | 75 | 1055.0 |
| 20260904195624 | 18 | 337 | 9.7 | 0.0 | 0.00 | 1.85 | 0.00 | 75 | 1055.0 |
| 20260904195512 | 18 | 292 | 9.7 | 0.0 | 0.00 | 1.85 | 0.00 | 75 | 1055.1 |
| 20260904195352 | 18 | 270 | 8.0 | 0.0 | 0.00 | 1.85 | 0.00 | 74 | 1055.0 |
| 20260904195246 | 18 | 337 | 6.4 | 0.0 | 0.00 | 1.85 | 0.00 | 74 | 1054.9 |
| 20260904195132 | 18 | 292 | 17.7 | 0.0 | 0.00 | 1.85 | 0.00 | 74 | 1055.0 |
| 20260904195012 | 18 | 292 | 9.7 | 0.0 | 0.00 | 1.85 | 0.00 | 74 | 1055.0 |
| 20260904194859 | 18 | 292 | 14.5 | 0.0 | 0.00 | 1.85 | 0.00 | 74 | 1055.0 |
| 20260904194745 | 18 | 315 | 20.9 | 0.0 | 0.00 | 1.85 | 0.00 | 74 | 1054.9 |
| 20260904194624 | 18 | 337 | 20.9 | 0.0 | 0.00 | 1.85 | 0.00 | 74 | 1054.9 |
| 20260904194511 | 18 | 315 | 9.7 | 0.0 | 0.00 | 1.85 | 0.00 | 74 | 1054.9 |
| 20260904194359 | 18 | 202 | 0.0 | 0.0 | 0.00 | 1.85 | 0.00 | 74 | 1054.9 |
| 20260904194252 | 18 | 337 | 11.3 | 0.0 | 0.00 | 1.85 | 0.00 | 74 | 1054.8 |
| 20260904194126 | 18 | 337 | 8.0 | 0.0 | 0.00 | 1.85 | 0.00 | 73 | 1054.7 |
| 20260904194018 | 18 | 292 | 12.9 | 0.0 | 0.00 | 1.85 | 0.00 | 74 | 1054.8 |
| 20260904193905 | 18 | 292 | 25.7 | 0.0 | 0.00 | 1.85 | 0.00 | 74 | 1054.8 |
| 20260904193746 | 18 | 270 | 17.7 | 0.0 | 0.00 | 1.85 | 0.00 | 75 | 1054.9 |
| 20260904193631 | 18 | 315 | 3.2 | 0.0 | 0.00 | 1.85 | 0.00 | 75 | 1054.9 |
| 20260904193518 | 18 | 315 | 22.5 | 0.0 | 0.00 | 1.85 | 0.00 | 75 | 1054.8 |
| 20260904193405 | 18 | 270 | 8.0 | 0.0 | 0.00 | 1.85 | 0.00 | 74 | 1054.7 |
| 20260904193252 | 18 | 337 | 4.8 | 0.0 | 0.00 | 1.85 | 0.00 | 74 | 1054.7 |
| 20260904193140 | 18 | 337 | 14.5 | 0.0 | 0.00 | 1.85 | 0.00 | 75 | 1054.6 |
| 20260904193033 | 18 | 315 | 12.9 | 0.0 | 0.00 | 1.85 | 0.00 | 74 | 1054.6 |
| 20260904192912 | 18 | 292 | 20.9 | 0.0 | 0.00 | 1.85 | 0.00 | 75 | 1054.6 |
| 20260904192801 | 18 | 270 | 19.3 | 0.0 | 0.00 | 1.85 | 0.00 | 75 | 1054.5 |
| 20260904192654 | 18 | 337 | 8.0 | 0.0 | 0.00 | 1.85 | 0.00 | 75 | 1054.5 |
| 20260904192541 | 18 | 270 | 12.9 | 0.0 | 0.00 | 1.85 | 0.00 | 75 | 1054.5 |
| 20260904192427 | 18 | 315 | 32.2 | 0.0 | 0.00 | 1.85 | 0.00 | 75 | 1054.6 |
| 20260904192306 | 18 | 315 | 12.9 | 0.0 | 0.00 | 1.85 | 0.00 | 75 | 1054.6 |
| 20260904192155 | 18 | 292 | 25.7 | 0.0 | 0.00 | 1.85 | 0.00 | 76 | 1054.5 |
| 20260904192048 | 18 | 247 | 17.7 | 0.0 | 0.00 | 1.85 | 0.00 | 76 | 1054.5 |
| 20260904191938 | 18 | 270 | 14.5 | 0.0 | 0.00 | 1.85 | 0.00 | 76 | 1054.5 |
| 20260904191830 | 17 | 337 | 22.5 | 0.0 | 0.00 | 1.85 | 0.00 | 76 | 1054.5 |
| 20260904191711 | 17 | 292 | 14.5 | 0.0 | 0.00 | 1.85 | 0.00 | 76 | 1054.5 |
| 20260904191606 | 17 | 315 | 16.1 | 0.0 | 0.00 | 1.85 | 0.00 | 76 | 1054.4 |
| 20260904191459 | 17 | 315 | 11.3 | 0.0 | 0.00 | 1.85 | 0.00 | 76 | 1054.5 |
| 20260904191356 | 17 | 337 | 24.1 | 0.0 | 0.00 | 1.85 | 0.00 | 76 | 1054.5 |
| 20260904191249 | 17 | 247 | 8.0 | 0.0 | 0.00 | 1.85 | 0.00 | 76 | 1054.5 |
| 20260904191128 | 17 | 315 | 17.7 | 0.0 | 0.00 | 1.85 | 0.00 | 76 | 1054.4 |
| 20260904191023 | 17 | 292 | 14.5 | 0.0 | 0.00 | 1.85 | 0.00 | 76 | 1054.4 |
| 20260904190917 | 17 | 270 | 19.3 | 0.0 | 0.00 | 1.85 | 0.00 | 76 | 1054.4 |
| 20260904190748 | 17 | 292 | 22.5 | 0.0 | 0.00 | 1.85 | 0.00 | 76 | 1054.4 |
| 20260904190635 | 17 | 270 | 6.4 | 0.0 | 0.00 | 1.85 | 0.00 | 76 | 1054.4 |
| 20260904190515 | 17 | 337 | 12.9 | 0.0 | 0.00 | 1.85 | 0.00 | 76 | 1054.4 |
| 20260904190411 | 17 | 292 | 12.9 | 0.0 | 0.00 | 1.85 | 0.00 | 76 | 1054.4 |
| 20260904190304 | 17 | 247 | 12.9 | 0.0 | 0.00 | 1.85 | 0.00 | 76 | 1054.4 |
| 20260904190151 | 17 | 292 | 6.4 | 0.0 | 0.00 | 1.85 | 0.00 | 76 | 1054.4 |
| 20260904190030 | 17 | 315 | 8.0 | 0.0 | 0.00 | 1.85 | 0.00 | 76 | 1054.3 |
| 20260904185917 | 17 | 292 | 32.2 | 0.0 | 0.00 | 1.85 | 0.00 | 76 | 1054.4 |
| 20260904185812 | 17 | 270 | 22.5 | 0.0 | 0.00 | 1.85 | 0.00 | 76 | 1054.3 |
| 20260904185700 | 17 | 337 | 0.0 | 0.0 | 0.00 | 1.85 | 0.00 | 76 | 1054.3 |
| 20260904185553 | 17 | 270 | 19.3 | 0.0 | 0.00 | 1.85 | 0.00 | 76 | 1054.4 |
| 20260904185440 | 17 | 337 | 4.8 | 0.0 | 0.00 | 1.85 | 0.00 | 76 | 1054.4 |
| 20260904185327 | 17 | 315 | 0.0 | 0.0 | 0.00 | 1.85 | 0.00 | 76 | 1054.3 |
| 20260904185222 | 17 | 315 | 4.8 | 0.0 | 0.00 | 1.85 | 0.00 | 76 | 1054.3 |
| 20260904185109 | 17 | 292 | 14.5 | 0.0 | 0.00 | 1.85 | 0.00 | 76 | 1054.3 |
| 20260904184958 | 17 | 270 | 17.7 | 0.0 | 0.00 | 1.85 | 0.00 | 76 | 1054.3 |
| 20260904184850 | 17 | 315 | 0.0 | 0.0 | 0.00 | 1.85 | 0.00 | 76 | 1054.3 |
| 20260904184722 | 17 | 315 | 11.3 | 0.0 | 0.00 | 1.85 | 0.00 | 76 | 1054.2 |
| 20260904184608 | 17 | 315 | 0.0 | 0.0 | 0.00 | 1.85 | 0.00 | 76 | 1054.2 |
| 20260904184455 | 17 | 270 | 30.6 | 0.0 | 0.00 | 1.85 | 0.00 | 76 | 1054.3 |
| 20260904184336 | 17 | 292 | 11.3 | 0.0 | 0.00 | 1.85 | 0.00 | 76 | 1054.3 |
| 20260904184221 | 17 | 292 | 9.7 | 0.0 | 0.00 | 1.85 | 0.00 | 75 | 1054.2 |
| 20260904184108 | 17 | 337 | 19.3 | 0.0 | 0.00 | 1.85 | 0.00 | 76 | 1054.2 |
| 20260904183939 | 17 | 292 | 12.9 | 0.0 | 0.00 | 1.85 | 0.00 | 76 | 1054.2 |
| 20260904183825 | 17 | 315 | 30.6 | 0.0 | 0.00 | 1.85 | 0.00 | 76 | 1054.2 |
| 20260904183704 | 17 | 292 | 8.0 | 0.0 | 0.00 | 1.85 | 0.00 | 76 | 1054.1 |
| 20260904183551 | 17 | 270 | 9.7 | 0.0 | 0.00 | 1.85 | 0.00 | 76 | 1054.1 |
| 20260904183438 | 17 | 270 | 19.3 | 0.0 | 0.00 | 1.85 | 0.00 | 76 | 1054.1 |
| 20260904183333 | 17 | 315 | 19.3 | 0.0 | 0.00 | 1.85 | 0.00 | 75 | 1054.2 |
| 20260904183220 | 17 | 292 | 6.4 | 0.0 | 0.00 | 1.85 | 0.00 | 75 | 1054.2 |
| 20260904183114 | 17 | 337 | 6.4 | 0.0 | 0.00 | 1.85 | 0.00 | 75 | 1054.2 |
| 20260904182953 | 17 | 292 | 25.7 | 0.0 | 0.00 | 1.85 | 0.00 | 76 | 1054.1 |
| 20260904182834 | 17 | 315 | 37.0 | 0.0 | 0.00 | 1.85 | 0.00 | 75 | 1054.1 |
| 20260904182719 | 17 | 315 | 8.0 | 0.0 | 0.00 | 1.85 | 0.00 | 75 | 1054.1 |
| 20260904182606 | 17 | 292 | 33.8 | 0.0 | 0.00 | 1.85 | 0.00 | 75 | 1054.0 |
| 20260904182453 | 17 | 292 | 19.3 | 0.0 | 0.00 | 1.85 | 0.00 | 75 | 1054.0 |
| 20260904182340 | 17 | 292 | 11.3 | 0.0 | 0.00 | 1.85 | 0.00 | 75 | 1054.1 |
| 20260904182234 | 17 | 292 | 22.5 | 0.0 | 0.00 | 1.85 | 0.00 | 75 | 1054.1 |
| 20260904182124 | 17 | 315 | 12.9 | 0.0 | 0.00 | 1.85 | 0.00 | 76 | 1054.0 |
| 20260904182018 | 17 | 292 | 32.2 | 0.0 | 0.00 | 1.85 | 0.00 | 76 | 1054.1 |
| 20260904181903 | 17 | 270 | 8.0 | 0.0 | 0.00 | 1.85 | 0.00 | 76 | 1054.0 |
| 20260904181749 | 17 | 0 | 0.0 | 0.0 | 0.00 | 1.85 | 0.00 | 76 | 1053.9 |
| 20260904181621 | 17 | 247 | 22.5 | 0.0 | 0.00 | 1.85 | 0.00 | 76 | 1054.0 |
| 20260904181508 | 17 | 292 | 17.7 | 0.0 | 0.00 | 1.85 | 0.00 | 76 | 1054.0 |
| 20260904181354 | 17 | 247 | 9.7 | 0.0 | 0.00 | 1.85 | 0.00 | 75 | 1054.0 |
| 20260904181236 | 17 | 337 | 19.3 | 0.0 | 0.00 | 1.85 | 0.00 | 75 | 1054.0 |
| 20260904181129 | 17 | 270 | 25.7 | 0.0 | 0.00 | 1.85 | 0.00 | 75 | 1054.0 |
| 20260904181024 | 17 | 0 | 14.5 | 0.0 | 0.00 | 1.85 | 0.00 | 75 | 1054.0 |
| 20260904180911 | 18 | 292 | 16.1 | 0.0 | 0.00 | 1.85 | 0.00 | 75 | 1053.9 |
| 20260904180805 | 18 | 0 | 24.1 | 0.0 | 0.00 | 1.85 | 0.00 | 76 | 1053.9 |
| 20260904180644 | 18 | 315 | 16.1 | 0.0 | 0.00 | 1.85 | 0.00 | 76 | 1053.9 |
| 20260904180531 | 18 | 270 | 9.7 | 0.0 | 0.00 | 1.85 | 0.00 | 76 | 1053.7 |
| 20260904180402 | 18 | 292 | 17.7 | 0.0 | 0.00 | 1.85 | 0.00 | 76 | 1053.8 |
| 20260904180249 | 18 | 247 | 6.4 | 0.0 | 0.00 | 1.85 | 0.00 | 76 | 1053.8 |
| 20260904180135 | 18 | 270 | 12.9 | 0.0 | 0.00 | 1.85 | 0.00 | 76 | 1053.8 |
| 20260904180024 | 18 | 315 | 0.0 | 0.0 | 0.00 | 1.85 | 0.00 | 76 | 1053.8 |
| 20260904175910 | 18 | 315 | 0.0 | 0.0 | 0.00 | 1.85 | 0.00 | 76 | 1053.8 |
| 20260904175807 | 18 | 315 | 25.7 | 0.0 | 0.00 | 1.85 | 0.00 | 76 | 1053.8 |
| 20260904175659 | 18 | 292 | 9.7 | 0.0 | 0.00 | 1.85 | 0.00 | 76 | 1053.7 |
| 20260904175546 | 18 | 270 | 6.4 | 0.0 | 0.00 | 1.85 | 0.00 | 75 | 1053.8 |
| 20260904175433 | 18 | 270 | 12.9 | 0.0 | 0.00 | 1.85 | 0.00 | 74 | 1053.7 |
| 20260904175328 | 18 | 292 | 8.0 | 0.0 | 0.00 | 1.85 | 0.00 | 74 | 1053.7 |
| 20260904175217 | 18 | 315 | 11.3 | 0.0 | 0.00 | 1.85 | 0.00 | 74 | 1053.7 |
| 20260904175110 | 18 | 315 | 25.7 | 0.0 | 0.00 | 1.85 | 0.00 | 75 | 1053.7 |
| 20260904175005 | 18 | 270 | 17.7 | 0.0 | 0.00 | 1.85 | 0.00 | 75 | 1053.8 |
| 20260904174853 | 18 | 247 | 12.9 | 0.0 | 0.00 | 1.85 | 0.00 | 74 | 1053.7 |
| 20260904174747 | 18 | 270 | 9.7 | 0.0 | 0.00 | 1.85 | 0.00 | 74 | 1053.5 |
| 20260904174633 | 18 | 292 | 11.3 | 0.0 | 0.00 | 1.85 | 0.00 | 73 | 1053.5 |
| 20260904174521 | 18 | 270 | 33.8 | 0.0 | 0.00 | 1.85 | 0.00 | 74 | 1053.5 |
| 20260904174416 | 18 | 315 | 0.0 | 0.0 | 0.00 | 1.85 | 0.00 | 74 | 1053.6 |
| 20260904174310 | 18 | 315 | 19.3 | 0.0 | 0.00 | 1.85 | 0.00 | 75 | 1053.5 |
| 20260904174206 | 18 | 337 | 9.7 | 0.0 | 0.00 | 1.85 | 0.00 | 75 | 1053.6 |
| 20260904174100 | 18 | 22 | 9.7 | 0.0 | 0.00 | 1.85 | 0.00 | 74 | 1053.5 |
| 20260904173933 | 18 | 292 | 20.9 | 0.0 | 0.00 | 1.85 | 0.00 | 75 | 1053.5 |
| 20260904173828 | 18 | 337 | 24.1 | 0.0 | 0.00 | 1.85 | 0.00 | 75 | 1053.5 |
| 20260904173721 | 18 | 315 | 11.3 | 0.0 | 0.00 | 1.85 | 0.00 | 75 | 1053.6 |
| 20260904173608 | 18 | 315 | 8.0 | 0.0 | 0.00 | 1.85 | 0.00 | 75 | 1053.6 |
| 20260904173455 | 18 | 0 | 20.9 | 0.0 | 0.00 | 1.85 | 0.00 | 75 | 1053.5 |
| 20260904173350 | 18 | 292 | 9.7 | 0.0 | 0.00 | 1.85 | 0.00 | 74 | 1053.5 |
| 20260904173244 | 18 | 292 | 22.5 | 0.0 | 0.00 | 1.85 | 0.00 | 74 | 1053.4 |
| 20260904173134 | 18 | 315 | 9.7 | 0.0 | 0.00 | 1.85 | 0.00 | 74 | 1053.5 |
| 20260904173026 | 18 | 292 | 16.1 | 0.0 | 0.00 | 1.85 | 0.00 | 74 | 1053.4 |
| 20260904172916 | 18 | 270 | 17.7 | 0.0 | 0.00 | 1.85 | 0.00 | 73 | 1053.4 |
| 20260904172808 | 18 | 292 | 20.9 | 0.0 | 0.00 | 1.85 | 0.00 | 74 | 1053.4 |
| 20260904172656 | 18 | 337 | 11.3 | 0.0 | 0.00 | 1.85 | 0.00 | 73 | 1053.4 |
| 20260904172550 | 18 | 292 | 29.0 | 0.0 | 0.00 | 1.85 | 0.00 | 74 | 1053.4 |
| 20260904172438 | 18 | 337 | 0.0 | 0.0 | 0.00 | 1.85 | 0.00 | 73 | 1053.3 |
| 20260904172330 | 18 | 315 | 17.7 | 0.0 | 0.00 | 1.85 | 0.00 | 72 | 1053.4 |
| 20260904172209 | 18 | 315 | 6.4 | 0.0 | 0.00 | 1.85 | 0.00 | 72 | 1053.3 |
| 20260904172056 | 18 | 292 | 4.8 | 0.0 | 0.00 | 1.85 | 0.00 | 72 | 1053.3 |
| 20260904171951 | 18 | 315 | 22.5 | 0.0 | 0.00 | 1.85 | 0.00 | 72 | 1053.3 |
| 20260904171846 | 18 | 270 | 0.0 | 0.0 | 0.00 | 1.85 | 0.00 | 72 | 1053.3 |
| 20260904171725 | 18 | 270 | 3.2 | 0.0 | 0.00 | 1.85 | 0.00 | 71 | 1053.3 |
| 20260904171620 | 18 | 270 | 19.3 | 0.0 | 0.00 | 1.85 | 0.00 | 71 | 1053.4 |
| 20260904171514 | 18 | 292 | 9.7 | 0.0 | 0.00 | 1.85 | 0.00 | 72 | 1053.4 |
| 20260904171402 | 18 | 270 | 11.3 | 0.0 | 0.00 | 1.85 | 0.00 | 72 | 1053.3 |
| 20260904171256 | 18 | 337 | 6.4 | 0.0 | 0.00 | 1.85 | 0.00 | 72 | 1053.3 |
| 20260904171143 | 18 | 337 | 17.7 | 0.0 | 0.00 | 1.85 | 0.00 | 72 | 1053.2 |
| 20260904171038 | 18 | 315 | 24.1 | 0.0 | 0.00 | 1.85 | 0.00 | 72 | 1053.3 |
| 20260904170923 | 18 | 22 | 0.0 | 0.0 | 0.00 | 1.85 | 0.00 | 71 | 1053.2 |
| 20260904170803 | 18 | 315 | 20.9 | 0.0 | 0.00 | 1.85 | 0.00 | 71 | 1053.1 |
| 20260904170649 | 18 | 292 | 9.7 | 0.0 | 0.00 | 1.85 | 0.00 | 73 | 1053.2 |
| 20260904170527 | 18 | 292 | 14.5 | 0.0 | 0.00 | 1.85 | 0.00 | 74 | 1053.3 |
| 20260904170417 | 18 | 292 | 9.7 | 0.0 | 0.00 | 1.85 | 0.00 | 74 | 1053.1 |
| 20260904170309 | 18 | 315 | 16.1 | 0.0 | 0.00 | 1.85 | 0.00 | 73 | 1053.1 |
| 20260904170156 | 18 | 292 | 0.0 | 0.0 | 0.00 | 1.85 | 0.00 | 73 | 1053.2 |
| 20260904170050 | 18 | 337 | 11.3 | 0.0 | 0.00 | 1.85 | 0.00 | 72 | 1053.1 |
| 20260904165945 | 18 | 337 | 9.7 | 0.0 | 0.00 | 1.85 | 0.00 | 71 | 1053.1 |
| 20260904165838 | 18 | 315 | 24.1 | 0.0 | 0.00 | 1.85 | 0.00 | 71 | 1053.1 |
| 20260904165718 | 18 | 292 | 8.0 | 0.0 | 0.00 | 1.85 | 0.00 | 71 | 1053.1 |
| 20260904165604 | 18 | 315 | 8.0 | 0.0 | 0.00 | 1.85 | 0.00 | 71 | 1053.0 |
| 20260904165451 | 18 | 270 | 9.7 | 0.0 | 0.00 | 1.85 | 0.00 | 72 | 1053.1 |
| 20260904165346 | 18 | 315 | 9.7 | 0.0 | 0.00 | 1.85 | 0.00 | 73 | 1053.0 |
| 20260904165235 | 18 | 0 | 9.7 | 0.0 | 0.00 | 1.85 | 0.00 | 73 | 1053.0 |
| 20260904165127 | 18 | 315 | 14.5 | 0.0 | 0.00 | 1.85 | 0.00 | 72 | 1053.0 |
| 20260904165007 | 18 | 315 | 11.3 | 0.0 | 0.00 | 1.85 | 0.00 | 72 | 1053.0 |
| 20260904164853 | 18 | 315 | 14.5 | 0.0 | 0.00 | 1.85 | 0.00 | 72 | 1053.0 |
| 20260904164733 | 18 | 292 | 33.8 | 0.0 | 0.00 | 1.85 | 0.00 | 72 | 1052.9 |
| 20260904164627 | 18 | 270 | 14.5 | 0.0 | 0.00 | 1.85 | 0.00 | 72 | 1052.9 |
| 20260904164516 | 18 | 337 | 30.6 | 0.0 | 0.00 | 1.85 | 0.00 | 72 | 1052.9 |
| 20260904164411 | 18 | 270 | 14.5 | 0.0 | 0.00 | 1.85 | 0.00 | 72 | 1052.9 |
| 20260904164304 | 18 | 0 | 0.0 | 0.0 | 0.00 | 1.85 | 0.00 | 72 | 1053.0 |
| 20260904164151 | 18 | 270 | 16.1 | 0.0 | 0.00 | 1.85 | 0.00 | 72 | 1053.0 |
| 20260904164047 | 18 | 292 | 9.7 | 0.0 | 0.00 | 1.85 | 0.00 | 72 | 1052.9 |
| 20260904163940 | 18 | 0 | 22.5 | 0.0 | 0.00 | 1.85 | 0.00 | 71 | 1052.9 |
| 20260904163828 | 18 | 292 | 8.0 | 0.0 | 0.00 | 1.85 | 0.00 | 71 | 1052.9 |
| 20260904163714 | 18 | 292 | 19.3 | 0.0 | 0.00 | 1.85 | 0.00 | 71 | 1052.9 |
| 20260904163602 | 18 | 315 | 33.8 | 0.0 | 0.00 | 1.85 | 0.00 | 72 | 1052.9 |
| 20260904163449 | 18 | 270 | 22.5 | 0.0 | 0.00 | 1.85 | 0.00 | 72 | 1053.0 |
| 20260904163327 | 18 | 315 | 24.1 | 0.0 | 0.00 | 1.85 | 0.00 | 71 | 1053.0 |
| 20260904163214 | 18 | 315 | 12.9 | 0.0 | 0.00 | 1.85 | 0.00 | 72 | 1052.9 |
| 20260904163101 | 18 | 315 | 17.7 | 0.0 | 0.00 | 1.85 | 0.00 | 71 | 1052.9 |
| 20260904162956 | 18 | 270 | 12.9 | 0.0 | 0.00 | 1.85 | 0.00 | 71 | 1052.8 |
| 20260904162837 | 18 | 315 | 6.4 | 0.0 | 0.00 | 1.85 | 0.00 | 71 | 1052.8 |
| 20260904162709 | 18 | 0 | 14.5 | 0.0 | 0.00 | 1.85 | 0.00 | 71 | 1052.8 |
| 20260904162556 | 18 | 315 | 3.2 | 0.0 | 0.00 | 1.85 | 0.00 | 71 | 1052.8 |
| 20260904162440 | 18 | 315 | 9.7 | 0.0 | 0.00 | 1.85 | 0.00 | 71 | 1052.7 |
| 20260904162301 | 18 | 180 | 9.7 | 0.0 | 0.00 | 1.85 | 0.00 | 71 | 1052.8 |
| 20260904162142 | 18 | 247 | 6.4 | 0.0 | 0.00 | 1.85 | 0.00 | 72 | 1052.8 |
| 20260904162027 | 18 | 270 | 11.3 | 0.0 | 0.00 | 1.85 | 0.00 | 72 | 1052.8 |
| 20260904161906 | 18 | 292 | 8.0 | 0.0 | 0.00 | 1.85 | 0.00 | 71 | 1052.8 |
| 20260904161801 | 18 | 292 | 12.9 | 0.0 | 0.00 | 1.85 | 0.00 | 71 | 1052.8 |
| 20260904161656 | 18 | 247 | 20.9 | 0.0 | 0.00 | 1.85 | 0.00 | 72 | 1052.8 |
| 20260904161535 | 18 | 247 | 29.0 | 0.0 | 0.00 | 1.85 | 0.00 | 72 | 1052.8 |
| 20260904161430 | 18 | 292 | 17.7 | 0.0 | 0.00 | 1.85 | 0.00 | 72 | 1052.9 |
| 20260904161319 | 18 | 337 | 16.1 | 0.0 | 0.00 | 1.85 | 0.00 | 71 | 1052.9 |
| 20260904161212 | 18 | 315 | 32.2 | 0.0 | 0.00 | 1.85 | 0.00 | 71 | 1052.7 |
| 20260904161106 | 18 | 270 | 25.7 | 0.0 | 0.00 | 1.85 | 0.00 | 72 | 1052.8 |
| 20260904160953 | 18 | 292 | 14.5 | 0.0 | 0.00 | 1.85 | 0.00 | 71 | 1052.9 |
| 20260904160849 | 18 | 315 | 4.8 | 0.0 | 0.00 | 1.85 | 0.00 | 71 | 1052.7 |
| 20260904160744 | 18 | 337 | 12.9 | 0.0 | 0.00 | 1.85 | 0.00 | 72 | 1052.7 |
| 20260904160631 | 18 | 315 | 9.7 | 0.0 | 0.00 | 1.85 | 0.00 | 72 | 1052.7 |
| 20260904160517 | 18 | 270 | 16.1 | 0.0 | 0.00 | 1.85 | 0.00 | 72 | 1052.8 |
| 20260904160412 | 18 | 292 | 11.3 | 0.0 | 0.00 | 1.85 | 0.00 | 72 | 1052.8 |
| 20260904160252 | 18 | 292 | 6.4 | 0.0 | 0.00 | 1.85 | 0.00 | 71 | 1052.7 |
| 20260904160146 | 18 | 270 | 12.9 | 0.0 | 0.00 | 1.85 | 0.00 | 71 | 1052.7 |
| 20260904160033 | 18 | 292 | 22.5 | 0.0 | 0.00 | 1.85 | 0.00 | 71 | 1052.8 |
| 20260904155922 | 18 | 292 | 11.3 | 0.0 | 0.00 | 1.85 | 0.00 | 72 | 1052.8 |
| 20260904155813 | 18 | 22 | 6.4 | 0.0 | 0.00 | 1.85 | 0.00 | 72 | 1052.7 |
| 20260904155703 | 18 | 292 | 22.5 | 0.0 | 0.00 | 1.85 | 0.00 | 72 | 1052.8 |
| 20260904155554 | 18 | 292 | 35.4 | 0.0 | 0.00 | 1.85 | 0.00 | 73 | 1052.7 |
| 20260904155438 | 18 | 315 | 16.1 | 0.0 | 0.00 | 1.85 | 0.00 | 73 | 1052.8 |
| 20260904155311 | 18 | 292 | 14.5 | 0.0 | 0.00 | 1.85 | 0.00 | 72 | 1052.8 |
| 20260904155203 | 18 | 292 | 14.5 | 0.0 | 0.00 | 1.85 | 0.00 | 72 | 1052.6 |
| 20260904155048 | 18 | 292 | 11.3 | 0.0 | 0.00 | 1.85 | 0.00 | 72 | 1052.7 |
| 20260904154918 | 18 | 270 | 16.1 | 0.0 | 0.00 | 1.85 | 0.00 | 72 | 1052.7 |
| 20260904154803 | 18 | 315 | 11.3 | 0.0 | 0.00 | 1.85 | 0.00 | 72 | 1052.7 |
| 20260904154646 | 18 | 337 | 25.7 | 0.0 | 0.00 | 1.85 | 0.00 | 72 | 1052.6 |
| 20260904154520 | 18 | 315 | 14.5 | 0.0 | 0.00 | 1.85 | 0.00 | 71 | 1052.6 |
| 20260904154415 | 18 | 270 | 19.3 | 0.0 | 0.00 | 1.85 | 0.00 | 72 | 1052.6 |
| 20260904154300 | 18 | 247 | 33.8 | 0.0 | 0.00 | 1.85 | 0.00 | 72 | 1052.6 |
| 20260904154138 | 19 | 270 | 19.3 | 0.0 | 0.00 | 1.85 | 0.00 | 73 | 1052.6 |
| 20260904154016 | 19 | 337 | 9.7 | 0.0 | 0.00 | 1.85 | 0.00 | 74 | 1052.5 |
| 20260904153847 | 19 | 337 | 14.5 | 0.0 | 0.00 | 1.85 | 0.00 | 75 | 1052.5 |
| 20260904153727 | 19 | 292 | 4.8 | 0.0 | 0.00 | 1.85 | 0.00 | 74 | 1052.6 |
| 20260904153623 | 19 | 315 | 27.4 | 0.0 | 0.00 | 1.85 | 0.00 | 75 | 1052.6 |
| 20260904153518 | 19 | 315 | 19.3 | 0.0 | 0.00 | 1.85 | 0.00 | 75 | 1052.5 |
| 20260904153412 | 19 | 270 | 30.6 | 0.0 | 0.00 | 1.85 | 0.00 | 75 | 1052.4 |
| 20260904153258 | 19 | 270 | 19.3 | 0.0 | 0.00 | 1.85 | 0.00 | 75 | 1052.3 |
| 20260904153144 | 19 | 315 | 11.3 | 0.0 | 0.00 | 1.85 | 0.00 | 75 | 1052.4 |
| 20260904153033 | 19 | 292 | 8.0 | 0.0 | 0.00 | 1.85 | 0.00 | 75 | 1052.3 |
| 20260904152921 | 19 | 0 | 8.0 | 0.0 | 0.00 | 1.85 | 0.00 | 75 | 1052.4 |
| 20260904152813 | 19 | 270 | 11.3 | 0.0 | 0.00 | 1.85 | 0.00 | 75 | 1052.3 |
| 20260904152653 | 19 | 270 | 9.7 | 0.0 | 0.00 | 1.85 | 0.00 | 75 | 1052.2 |
| 20260904152547 | 19 | 292 | 17.7 | 0.0 | 0.00 | 1.85 | 0.00 | 75 | 1052.2 |
| 20260904152442 | 19 | 337 | 11.3 | 0.0 | 0.00 | 1.85 | 0.00 | 75 | 1052.1 |
| 20260904152328 | 19 | 0 | 9.7 | 0.0 | 0.00 | 1.85 | 0.00 | 78 | 1052.2 |
| 20260904152200 | 19 | 0 | 17.7 | 0.0 | 0.00 | 1.85 | 0.00 | 78 | 1051.9 |
| 20260904152055 | 19 | 315 | 9.7 | 0.0 | 0.00 | 1.85 | 0.00 | 77 | 1051.9 |
| 20260904151933 | 19 | 292 | 8.0 | 0.0 | 0.00 | 1.85 | 0.00 | 76 | 1052.0 |
| 20260904151812 | 19 | 292 | 32.2 | 0.0 | 0.00 | 1.85 | 0.00 | 76 | 1052.0 |
| 20260904151646 | 19 | 292 | 27.4 | 0.0 | 0.00 | 1.85 | 0.00 | 76 | 1052.1 |
| 20260904151540 | 19 | 315 | 8.0 | 0.0 | 0.00 | 1.85 | 0.00 | 78 | 1052.1 |
| 20260904151433 | 19 | 315 | 6.4 | 0.0 | 0.00 | 1.85 | 0.00 | 78 | 1052.1 |
| 20260904151314 | 19 | 315 | 3.2 | 0.0 | 0.00 | 1.85 | 0.00 | 77 | 1052.0 |
| 20260904151200 | 19 | 292 | 20.9 | 0.0 | 0.00 | 1.85 | 0.00 | 77 | 1051.9 |
| 20260904151053 | 19 | 292 | 24.1 | 0.0 | 0.00 | 1.85 | 0.00 | 77 | 1052.0 |
| 20260904150933 | 19 | 337 | 8.0 | 0.0 | 0.00 | 1.85 | 0.00 | 77 | 1052.0 |
| 20260904150827 | 19 | 337 | 25.7 | 0.0 | 0.00 | 1.85 | 0.00 | 77 | 1052.1 |
| 20260904150715 | 19 | 270 | 12.9 | 0.0 | 0.00 | 1.85 | 0.00 | 78 | 1051.9 |
| 20260904150600 | 19 | 292 | 17.7 | 0.0 | 0.00 | 1.85 | 0.00 | 78 | 1051.8 |
| 20260904150439 | 19 | 292 | 17.7 | 0.0 | 0.00 | 1.85 | 0.00 | 79 | 1051.9 |
| 20260904150319 | 19 | 315 | 17.7 | 0.0 | 0.00 | 1.85 | 0.00 | 80 | 1051.9 |
| 20260904150216 | 19 | 270 | 3.2 | 0.0 | 0.00 | 1.85 | 0.00 | 80 | 1051.8 |
| 20260904150059 | 19 | 315 | 8.0 | 0.0 | 0.00 | 1.85 | 0.00 | 80 | 1051.8 |
| 20260904145938 | 19 | 270 | 183.5 | 0.0 | 0.00 | 1.85 | 0.00 | 79 | 1051.7 |